THY2GF LTFM-KJFK

Flight info

Callsign THY2GF
Flight time 10h 19m
Altitude 34000
Route TUDBU Q26 ETUBA DCT DEGET DCT PATAK/N0471F360 DCT ODNEM DCT ELMEK DCT VEXIL DCT KATCE DCT MIMVA DCT OTBED L60 PENIL M144 BAGSO DCT LIMRI/M083F380 DCT 53N020W 53N030W 53N040W 52N050W DCT TUDEP/N0485F400 N526A TOPPS DCT ENE PARCH4
Aircraft B772/H-SDE2E3FGHIJ5LORVWXY/LB1D1

Departure

Time 2026-05-03 23:31
Airport İstanbul Airport (LTFM)

Arrival

Time 2026-05-04 09:51
Airport John F. Kennedy International Airport (KJFK)
Time Latitude Longitude Altitude Speed Heading
2026-05-03 23:14 41.26637 28.73765 304 ft 0 kts 269°
2026-05-03 23:20 41.26637 28.73775 304 ft 2 kts 269°
2026-05-03 23:20 41.26637 28.73795 304 ft 2 kts 269°
2026-05-03 23:20 41.26638 28.73815 304 ft 2 kts 269°
2026-05-03 23:20 41.26638 28.73835 304 ft 2 kts 270°
2026-05-03 23:21 41.26635 28.73854 304 ft 2 kts 300°
2026-05-03 23:21 41.26625 28.73869 304 ft 2 kts 327°
2026-05-03 23:21 41.26612 28.73877 304 ft 2 kts 354°
2026-05-03 23:21 41.26605 28.73878 304 ft 0 kts
2026-05-03 23:22 41.26604 28.73878 304 ft 0 kts
2026-05-03 23:23 41.26605 28.73878 304 ft 0 kts
2026-05-03 23:23 41.26614 28.73878 304 ft 2 kts
2026-05-03 23:24 41.26641 28.73878 304 ft 5 kts
2026-05-03 23:24 41.26693 28.73878 304 ft 9 kts 358°
2026-05-03 23:24 41.26767 28.73872 304 ft 11 kts 357°
2026-05-03 23:24 41.26838 28.73867 304 ft 10 kts 358°
2026-05-03 23:25 41.26908 28.73863 304 ft 9 kts 358°
2026-05-03 23:25 41.26979 28.73860 303 ft 10 kts 358°
2026-05-03 23:25 41.27036 28.73815 302 ft 10 kts 285°
2026-05-03 23:25 41.27039 28.73720 302 ft 10 kts 270°
2026-05-03 23:26 41.27038 28.73618 302 ft 11 kts 270°
2026-05-03 23:26 41.27037 28.73519 302 ft 10 kts 268°
2026-05-03 23:26 41.27035 28.73425 302 ft 9 kts 268°
2026-05-03 23:26 41.27033 28.73324 302 ft 13 kts 269°
2026-05-03 23:27 41.27031 28.73205 302 ft 12 kts 269°
2026-05-03 23:27 41.27031 28.73102 303 ft 10 kts 270°
2026-05-03 23:27 41.27016 28.73014 304 ft 11 kts 231°
2026-05-03 23:27 41.26933 28.72996 306 ft 13 kts 181°
2026-05-03 23:28 41.26848 28.72998 309 ft 11 kts 178°
2026-05-03 23:28 41.26776 28.73002 311 ft 9 kts 179°
2026-05-03 23:28 41.26728 28.73002 312 ft 8 kts 181°
2026-05-03 23:28 41.26701 28.73002 313 ft 7 kts 181°
2026-05-03 23:29 41.26628 28.73001 315 ft 13 kts 180°
2026-05-03 23:29 41.26520 28.73002 317 ft 17 kts 179°
2026-05-03 23:29 41.26380 28.73006 320 ft 22 kts 178°
2026-05-03 23:29 41.26246 28.73005 323 ft 17 kts 196°
2026-05-03 23:30 41.26205 28.72876 324 ft 15 kts 270°
2026-05-03 23:30 41.26203 28.72729 324 ft 15 kts 270°
2026-05-03 23:30 41.26203 28.72595 324 ft 14 kts 270°
2026-05-03 23:30 41.26261 28.72529 322 ft 13 kts 357°
2026-05-03 23:31 41.26453 28.72521 318 ft 55 kts 359°
2026-05-03 23:31 41.27056 28.72514 303 ft 117 kts 359°
2026-05-03 23:31 41.28029 28.72499 445 ft 154 kts
2026-05-03 23:31 41.29090 28.72468 1106 ft 158 kts
2026-05-03 23:32 41.30177 28.72449 1823 ft 156 kts
2026-05-03 23:32 41.31309 28.72470 2138 ft 171 kts
2026-05-03 23:32 41.32515 28.72480 2434 ft 185 kts
2026-05-03 23:32 41.33841 28.72493 2693 ft 201 kts
2026-05-03 23:33 41.35293 28.72507 3075 ft 216 kts
2026-05-03 23:33 41.36848 28.72522 3552 ft 226 kts
2026-05-03 23:33 41.38371 28.72329 4105 ft 234 kts 347°
2026-05-03 23:33 41.39916 28.71476 4660 ft 243 kts 340°
2026-05-03 23:34 41.41458 28.70485 5281 ft 246 kts 339°
2026-05-03 23:34 41.42984 28.69503 5874 ft 249 kts 340°
2026-05-03 23:34 41.44571 28.68488 6445 ft 252 kts 340°
2026-05-03 23:34 41.46166 28.67469 7014 ft 255 kts 340°
2026-05-03 23:35 41.47769 28.66444 7567 ft 259 kts 340°
2026-05-03 23:35 41.49287 28.65473 8037 ft 263 kts 340°
2026-05-03 23:35 41.50834 28.64483 8560 ft 266 kts 340°
2026-05-03 23:35 41.52514 28.63407 9113 ft 269 kts 340°
2026-05-03 23:36 41.54235 28.62305 9664 ft 273 kts 340°
2026-05-03 23:36 41.55942 28.61208 10180 ft 277 kts 338°
2026-05-03 23:36 41.57646 28.59801 10382 ft 297 kts 327°
2026-05-03 23:36 41.59209 28.57863 10537 ft 317 kts 317°
2026-05-03 23:37 41.60702 28.55636 10682 ft 333 kts 316°
2026-05-03 23:37 41.62277 28.53279 10809 ft 347 kts 316°
2026-05-03 23:37 41.63963 28.50788 10912 ft 361 kts 317°
2026-05-03 23:37 41.65672 28.48272 11119 ft 370 kts 315°
2026-05-03 23:38 41.67215 28.45481 11496 ft 379 kts 305°
2026-05-03 23:38 41.68409 28.42277 11918 ft 384 kts 298°
2026-05-03 23:38 41.69482 28.39014 12317 ft 388 kts 297°
2026-05-03 23:38 41.70570 28.35685 12757 ft 390 kts 297°
2026-05-03 23:39 41.71664 28.32329 13188 ft 393 kts 296°
2026-05-03 23:39 41.72757 28.28979 13604 ft 395 kts 296°
2026-05-03 23:39 41.73860 28.25589 14028 ft 398 kts 296°
2026-05-03 23:39 41.74966 28.22190 14490 ft 399 kts 296°
2026-05-03 23:40 41.76059 28.18826 15023 ft 398 kts 295°
2026-05-03 23:40 41.77182 28.15368 15357 ft 404 kts 295°
2026-05-03 23:40 41.78314 28.11878 15695 ft 409 kts 295°
2026-05-03 23:40 41.79557 28.08476 16091 ft 410 kts 302°
2026-05-03 23:41 41.81211 28.05274 16462 ft 413 kts 308°
2026-05-03 23:41 41.82944 28.02188 16846 ft 416 kts 308°
2026-05-03 23:41 41.84690 27.99087 17258 ft 419 kts 308°
2026-05-03 23:41 41.86466 27.95927 17674 ft 421 kts 308°
2026-05-03 23:42 41.88235 27.92774 18082 ft 424 kts 308°
2026-05-03 23:42 41.89993 27.89637 18474 ft 427 kts 308°
2026-05-03 23:42 41.91782 27.86440 18882 ft 429 kts 308°
2026-05-03 23:42 41.93585 27.83214 19291 ft 431 kts 308°
2026-05-03 23:43 41.95380 27.79999 19685 ft 434 kts 308°
2026-05-03 23:43 41.97293 27.76852 20063 ft 435 kts 314°
2026-05-03 23:43 41.99436 27.73882 20458 ft 437 kts 315°
2026-05-03 23:43 42.01560 27.70985 20930 ft 437 kts 315°
2026-05-03 23:44 42.03718 27.68039 21374 ft 438 kts 315°
2026-05-03 23:44 42.05866 27.65101 21756 ft 440 kts 315°
2026-05-03 23:44 42.08012 27.62163 22120 ft 443 kts 315°
2026-05-03 23:44 42.10178 27.59192 22497 ft 445 kts 315°
2026-05-03 23:45 42.12352 27.56207 22873 ft 447 kts 315°
2026-05-03 23:45 42.14506 27.53245 23244 ft 449 kts 315°
2026-05-03 23:45 42.16721 27.50196 23610 ft 451 kts 315°
2026-05-03 23:45 42.18901 27.47192 23958 ft 453 kts 315°
2026-05-03 23:46 42.21107 27.44149 24301 ft 455 kts 315°
2026-05-03 23:46 42.23353 27.41047 24651 ft 458 kts 315°
2026-05-03 23:46 42.25582 27.37965 24995 ft 460 kts 315°
2026-05-03 23:46 42.27819 27.34868 25278 ft 463 kts 314°
2026-05-03 23:47 42.30081 27.31734 25539 ft 467 kts 314°
2026-05-03 23:47 42.32346 27.28592 25853 ft 470 kts 314°
2026-05-03 23:47 42.34613 27.25443 26181 ft 472 kts 314°
2026-05-03 23:47 42.36915 27.22242 26469 ft 474 kts 314°
2026-05-03 23:48 42.39223 27.19030 26669 ft 479 kts 314°
2026-05-03 23:48 42.41537 27.15805 26962 ft 481 kts 314°
2026-05-03 23:48 42.43868 27.12552 27292 ft 482 kts 314°
2026-05-03 23:48 42.46215 27.09274 27595 ft 484 kts 314°
2026-05-03 23:49 42.48555 27.06002 27878 ft 486 kts 314°
2026-05-03 23:49 42.50898 27.02721 28158 ft 488 kts 314°
2026-05-03 23:49 42.53276 26.99389 28441 ft 490 kts 314°
2026-05-03 23:49 42.55641 26.96071 28718 ft 491 kts 314°
2026-05-03 23:50 42.58009 26.92744 29000 ft 492 kts 314°
2026-05-03 23:50 42.60414 26.89361 29283 ft 493 kts 315°
2026-05-03 23:50 42.62797 26.86005 29585 ft 494 kts 315°
2026-05-03 23:50 42.65155 26.82681 29970 ft 492 kts 315°
2026-05-03 23:51 42.67537 26.79317 30363 ft 490 kts 315°
2026-05-03 23:51 42.69874 26.76016 30675 ft 490 kts 315°
2026-05-03 23:51 42.72240 26.72669 30933 ft 491 kts 315°
2026-05-03 23:51 42.74599 26.69328 31136 ft 493 kts 315°
2026-05-03 23:52 42.76962 26.65977 31385 ft 495 kts 315°
2026-05-03 23:52 42.79352 26.62584 31563 ft 498 kts 315°
2026-05-03 23:52 42.81737 26.59194 31806 ft 499 kts 315°
2026-05-03 23:52 42.84202 26.55866 32143 ft 498 kts 317°
2026-05-03 23:53 42.86715 26.52572 32516 ft 496 kts 317°
2026-05-03 23:53 42.89201 26.49310 32864 ft 496 kts 317°
2026-05-03 23:53 42.91668 26.46065 33182 ft 495 kts 317°
2026-05-03 23:53 42.94131 26.42816 33490 ft 495 kts 317°
2026-05-03 23:54 42.96617 26.39529 33799 ft 494 kts 317°
2026-05-03 23:54 42.99071 26.36280 34103 ft 494 kts 317°
2026-05-03 23:54 43.04020 26.29709 34191 ft 496 kts 317°
2026-05-03 23:55 43.08975 26.23111 34195 ft 494 kts 317°
2026-05-03 23:55 43.13822 26.16637 34191 ft 485 kts 317°
2026-05-03 23:56 43.18639 26.10190 34194 ft 483 kts 317°
2026-05-03 23:56 43.23448 26.03737 34193 ft 484 kts 317°
2026-05-03 23:57 43.28234 25.97300 34193 ft 483 kts 317°
2026-05-03 23:57 43.33038 25.90823 34194 ft 483 kts 317°
2026-05-03 23:58 43.37825 25.84354 34194 ft 483 kts 317°
2026-05-03 23:58 43.42616 25.77864 34194 ft 483 kts 317°
2026-05-03 23:59 43.47376 25.71400 34195 ft 481 kts 318°
2026-05-03 23:59 43.52107 25.64961 34195 ft 478 kts 319°
2026-05-04 00:00 43.56835 25.58513 34194 ft 479 kts 318°
2026-05-04 00:00 43.61567 25.52043 34194 ft 479 kts 318°
2026-05-04 00:01 43.66291 25.45569 34194 ft 479 kts 318°
2026-05-04 00:01 43.71011 25.39084 34194 ft 479 kts 318°
2026-05-04 00:02 43.75733 25.32581 34191 ft 480 kts 317°
2026-05-04 00:02 43.80426 25.26104 34232 ft 480 kts 318°
2026-05-04 00:03 43.85151 25.19565 34231 ft 478 kts 319°
2026-05-04 00:03 43.89828 25.13080 34232 ft 479 kts 319°
2026-05-04 00:04 43.94530 25.06544 34232 ft 478 kts 319°
2026-05-04 00:04 43.99219 25.00011 34232 ft 478 kts 319°
2026-05-04 00:05 44.03949 24.93404 34232 ft 478 kts 319°
2026-05-04 00:05 44.08637 24.86841 34232 ft 478 kts 319°
2026-05-04 00:06 44.13334 24.80250 34238 ft 479 kts 319°
2026-05-04 00:06 44.18018 24.73661 34207 ft 479 kts 319°
2026-05-04 00:07 44.22655 24.67118 34196 ft 472 kts 319°
2026-05-04 00:07 44.27286 24.60574 34198 ft 473 kts 320°
2026-05-04 00:08 44.31898 24.54038 34198 ft 470 kts 320°
2026-05-04 00:08 44.36515 24.47482 34198 ft 471 kts 320°
2026-05-04 00:09 44.40969 24.41143 34198 ft 470 kts 320°
2026-05-04 00:09 44.45533 24.34631 34197 ft 470 kts 320°
2026-05-04 00:10 44.50105 24.28092 34191 ft 471 kts 320°
2026-05-04 00:10 44.54697 24.21506 34192 ft 470 kts 320°
2026-05-04 00:11 44.59074 24.15215 34191 ft 468 kts 320°
2026-05-04 00:11 44.63475 24.08876 34191 ft 469 kts 320°
2026-05-04 00:12 44.68002 24.02342 34191 ft 469 kts 320°
2026-05-04 00:12 44.72525 23.95795 34191 ft 469 kts 320°
2026-05-04 00:13 44.77083 23.89184 34192 ft 469 kts 320°
2026-05-04 00:13 44.81415 23.82881 34189 ft 464 kts 320°
2026-05-04 00:14 44.85912 23.76328 34191 ft 465 kts 320°
2026-05-04 00:14 44.90396 23.69774 34190 ft 464 kts 320°
2026-05-04 00:15 44.94844 23.63261 34190 ft 464 kts 320°
2026-05-04 00:15 44.99326 23.56681 34190 ft 464 kts 320°
2026-05-04 00:16 45.03775 23.50133 34190 ft 464 kts 320°
2026-05-04 00:16 45.08234 23.43557 34170 ft 464 kts 320°
2026-05-04 00:17 45.12720 23.36922 34179 ft 464 kts 320°
2026-05-04 00:17 45.17190 23.30298 34174 ft 465 kts 319°
2026-05-04 00:18 45.21641 23.23683 34176 ft 464 kts 319°
2026-05-04 00:18 45.26049 23.17117 34172 ft 462 kts 319°
2026-05-04 00:19 45.30502 23.10470 34173 ft 465 kts 319°
2026-05-04 00:19 45.34937 23.03830 34173 ft 464 kts 319°
2026-05-04 00:20 45.39366 22.97185 34173 ft 464 kts 319°
2026-05-04 00:20 45.43726 22.90627 34173 ft 464 kts 319°
2026-05-04 00:21 45.48157 22.83947 34173 ft 464 kts 319°
2026-05-04 00:21 45.52593 22.77243 34173 ft 464 kts 319°
2026-05-04 00:22 45.57024 22.70528 34206 ft 463 kts 318°
2026-05-04 00:22 45.61268 22.64082 34214 ft 463 kts 318°
2026-05-04 00:23 45.65695 22.57343 34214 ft 463 kts 318°
2026-05-04 00:23 45.69944 22.50858 34214 ft 463 kts 318°
2026-05-04 00:24 45.74327 22.44151 34214 ft 463 kts 318°
2026-05-04 00:24 45.78753 22.37366 34215 ft 466 kts 318°
2026-05-04 00:25 45.83187 22.30547 34210 ft 466 kts 317°
2026-05-04 00:25 45.87602 22.23743 34210 ft 465 kts 317°
2026-05-04 00:26 45.91690 22.17424 34209 ft 462 kts 316°
2026-05-04 00:26 45.96070 22.10640 34209 ft 463 kts 316°
2026-05-04 00:27 46.00446 22.03847 34209 ft 462 kts 316°
2026-05-04 00:27 46.04789 21.97087 34209 ft 462 kts 316°
2026-05-04 00:28 46.09145 21.90289 34189 ft 462 kts 316°
2026-05-04 00:28 46.13239 21.83885 34196 ft 462 kts 316°
2026-05-04 00:29 46.17586 21.77070 34197 ft 462 kts 316°
2026-05-04 00:29 46.21907 21.70276 34195 ft 460 kts 316°
2026-05-04 00:30 46.26220 21.63480 34194 ft 460 kts 316°
2026-05-04 00:30 46.30579 21.56594 34195 ft 464 kts 316°
2026-05-04 00:31 46.34966 21.49645 34195 ft 463 kts 316°
2026-05-04 00:31 46.39012 21.43221 34195 ft 463 kts 316°
2026-05-04 00:32 46.43352 21.36313 34195 ft 463 kts 316°
2026-05-04 00:32 46.47539 21.29630 34192 ft 463 kts 315°
2026-05-04 00:33 46.54406 21.19879 34192 ft 459 kts 322°
2026-05-04 00:34 46.59172 21.13796 34192 ft 459 kts 321°
2026-05-04 00:34 46.63927 21.07649 34192 ft 459 kts 321°
2026-05-04 00:35 46.68697 21.01435 34191 ft 459 kts 321°
2026-05-04 00:35 46.73059 20.95723 34191 ft 459 kts 321°
2026-05-04 00:36 46.77795 20.89499 34191 ft 459 kts 321°
2026-05-04 00:36 46.82493 20.83302 34191 ft 459 kts 321°
2026-05-04 00:37 46.87236 20.77029 34191 ft 459 kts 321°
2026-05-04 00:37 46.91948 20.70779 34190 ft 458 kts 320°
2026-05-04 00:38 46.96658 20.64518 34190 ft 458 kts 320°
2026-05-04 00:38 47.01376 20.58228 34190 ft 458 kts 320°
2026-05-04 00:39 47.06068 20.51957 34190 ft 458 kts 320°
2026-05-04 00:39 47.10766 20.45665 34192 ft 458 kts 320°
2026-05-04 00:40 47.15459 20.39361 34196 ft 458 kts 320°
2026-05-04 00:40 47.20156 20.33037 34195 ft 458 kts 320°
2026-05-04 00:41 47.24857 20.26691 34194 ft 458 kts 320°
2026-05-04 00:41 47.29548 20.20343 34194 ft 460 kts 320°
2026-05-04 00:42 47.34249 20.13966 34194 ft 460 kts 320°
2026-05-04 00:42 47.38952 20.07569 34194 ft 460 kts 320°
2026-05-04 00:43 47.43630 20.01190 34193 ft 460 kts 320°
2026-05-04 00:43 47.48301 19.94805 34193 ft 460 kts 320°
2026-05-04 00:44 47.52980 19.88392 34193 ft 460 kts 320°
2026-05-04 00:44 47.57674 19.81942 34193 ft 460 kts 320°
2026-05-04 00:45 47.62336 19.75520 34192 ft 460 kts 320°
2026-05-04 00:45 47.66998 19.69081 34192 ft 458 kts 320°
2026-05-04 00:46 47.71658 19.62629 34192 ft 458 kts 320°
2026-05-04 00:46 47.76305 19.56180 34192 ft 458 kts 319°
2026-05-04 00:47 47.80959 19.49704 34191 ft 459 kts 319°
2026-05-04 00:47 47.85590 19.43244 34191 ft 459 kts 319°
2026-05-04 00:48 47.90231 19.36751 34191 ft 459 kts 319°
2026-05-04 00:48 47.94746 19.30420 34190 ft 459 kts 319°
2026-05-04 00:49 47.99396 19.23882 34190 ft 459 kts 318°
2026-05-04 00:49 48.04009 19.17378 34190 ft 457 kts 318°
2026-05-04 00:50 48.08081 19.10558 34185 ft 463 kts 306°
2026-05-04 00:50 48.09827 19.06472 34350 ft 466 kts 304°
2026-05-04 00:50 48.11529 19.02379 34784 ft 463 kts 304°
2026-05-04 00:50 48.13215 18.98301 35305 ft 457 kts 304°
2026-05-04 00:51 48.14886 18.94248 35711 ft 454 kts 304°
2026-05-04 00:51 48.16537 18.90233 35985 ft 453 kts 304°
2026-05-04 00:51 48.18081 18.86469 36175 ft 454 kts 303°
2026-05-04 00:52 48.21373 18.78420 36161 ft 454 kts 303°
2026-05-04 00:52 48.24655 18.70364 36158 ft 451 kts 303°
2026-05-04 00:53 48.27929 18.62301 36158 ft 453 kts 303°
2026-05-04 00:53 48.31185 18.54255 36158 ft 452 kts 303°
2026-05-04 00:54 48.34328 18.46466 36158 ft 452 kts 303°
2026-05-04 00:54 48.37581 18.38378 36157 ft 452 kts 303°
2026-05-04 00:55 48.40814 18.30316 36158 ft 452 kts 302°
2026-05-04 00:55 48.44071 18.22171 36157 ft 452 kts 302°
2026-05-04 00:56 48.47295 18.14083 36158 ft 453 kts 302°
2026-05-04 00:56 48.50542 18.05910 36158 ft 453 kts 302°
2026-05-04 00:57 48.53760 17.97787 36157 ft 453 kts 302°
2026-05-04 00:57 48.56988 17.89614 36157 ft 453 kts 302°
2026-05-04 00:58 48.60213 17.81425 36157 ft 453 kts 302°
2026-05-04 00:58 48.63415 17.73268 36156 ft 453 kts 301°
2026-05-04 00:59 48.66651 17.64999 36156 ft 455 kts 301°
2026-05-04 00:59 48.69855 17.56787 36156 ft 454 kts 301°
2026-05-04 01:00 48.73056 17.48555 36156 ft 453 kts 301°
2026-05-04 01:00 48.76237 17.40350 36165 ft 453 kts 301°
2026-05-04 01:01 48.79418 17.32120 36238 ft 454 kts 300°
2026-05-04 01:01 48.82605 17.23850 36239 ft 455 kts 300°
2026-05-04 01:02 48.85787 17.15556 36238 ft 455 kts 299°
2026-05-04 01:02 48.88783 17.07129 36239 ft 456 kts 298°
2026-05-04 01:03 48.91779 16.98617 36195 ft 457 kts 298°
2026-05-04 01:03 48.94758 16.90145 36117 ft 456 kts 298°
2026-05-04 01:04 48.97756 16.81606 36115 ft 456 kts 298°
2026-05-04 01:04 49.00718 16.73146 36116 ft 456 kts 298°
2026-05-04 01:05 49.03600 16.64890 36115 ft 455 kts 298°
2026-05-04 01:05 49.06565 16.56372 36114 ft 455 kts 298°
2026-05-04 01:06 49.09526 16.47838 36114 ft 455 kts 298°
2026-05-04 01:06 49.12481 16.39296 36116 ft 455 kts 298°
2026-05-04 01:07 49.15425 16.30754 36117 ft 455 kts 297°
2026-05-04 01:07 49.18270 16.22472 36097 ft 455 kts 297°
2026-05-04 01:08 49.21217 16.13866 36096 ft 455 kts 297°
2026-05-04 01:08 49.24161 16.05240 36096 ft 455 kts 297°
2026-05-04 01:09 49.27104 15.96588 36096 ft 457 kts 297°
2026-05-04 01:09 49.30036 15.87940 36095 ft 456 kts 297°
2026-05-04 01:10 49.32887 15.79500 36095 ft 456 kts 297°
2026-05-04 01:10 49.35745 15.71008 36095 ft 456 kts 296°
2026-05-04 01:11 49.38614 15.62461 36094 ft 456 kts 296°
2026-05-04 01:11 49.41315 15.54386 36094 ft 456 kts 296°
2026-05-04 01:12 49.44097 15.46045 36094 ft 456 kts 296°
2026-05-04 01:12 49.46991 15.37338 36074 ft 456 kts 296°
2026-05-04 01:13 49.49858 15.28678 36076 ft 456 kts 296°
2026-05-04 01:13 49.52725 15.19993 36075 ft 456 kts 295°
2026-05-04 01:14 49.55572 15.11336 36075 ft 456 kts 295°
2026-05-04 01:14 49.58431 15.02615 36075 ft 456 kts 295°
2026-05-04 01:15 49.61278 14.93899 36075 ft 456 kts 295°
2026-05-04 01:15 49.64016 14.85488 36075 ft 456 kts 295°
2026-05-04 01:16 49.66849 14.76755 36074 ft 456 kts 295°
2026-05-04 01:16 49.69674 14.68017 36074 ft 456 kts 295°
2026-05-04 01:17 49.72503 14.59236 36074 ft 456 kts 295°
2026-05-04 01:17 49.75311 14.50487 36074 ft 456 kts 295°
2026-05-04 01:18 49.78127 14.41686 36074 ft 458 kts 294°
2026-05-04 01:18 49.80832 14.33201 36076 ft 457 kts 294°
2026-05-04 01:19 49.83641 14.24359 36077 ft 457 kts 294°
2026-05-04 01:19 49.86433 14.15539 36077 ft 458 kts 294°
2026-05-04 01:20 49.89234 14.06658 36077 ft 458 kts 294°
2026-05-04 01:20 49.92123 13.97912 36080 ft 459 kts 297°
2026-05-04 01:21 49.95252 13.89284 36076 ft 459 kts 297°
2026-05-04 01:21 49.98354 13.80659 36076 ft 459 kts 297°
2026-05-04 01:22 50.01436 13.72030 36075 ft 459 kts 296°
2026-05-04 01:22 50.04534 13.63307 36076 ft 460 kts 296°
2026-05-04 01:23 50.07620 13.54581 36076 ft 460 kts 296°
2026-05-04 01:23 50.10680 13.45893 36094 ft 460 kts 296°
2026-05-04 01:24 50.13752 13.37143 36092 ft 460 kts 296°
2026-05-04 01:24 50.16798 13.28433 36095 ft 460 kts 296°
2026-05-04 01:25 50.19842 13.19701 36095 ft 456 kts 295°
2026-05-04 01:25 50.22845 13.11056 36096 ft 453 kts 295°
2026-05-04 01:26 50.25832 13.02423 36093 ft 454 kts 295°
2026-05-04 01:26 50.28827 12.93740 36094 ft 455 kts 295°
2026-05-04 01:27 50.31808 12.85069 36094 ft 454 kts 295°
2026-05-04 01:27 50.34782 12.76389 36094 ft 454 kts 295°
2026-05-04 01:28 50.37757 12.67679 36091 ft 449 kts 295°
2026-05-04 01:28 50.40782 12.59133 36096 ft 452 kts 298°
2026-05-04 01:29 50.44101 12.50777 36093 ft 452 kts 298°
2026-05-04 01:29 50.47408 12.42384 36092 ft 452 kts 298°
2026-05-04 01:30 50.50680 12.34018 36094 ft 452 kts 297°
2026-05-04 01:30 50.53952 12.25605 36097 ft 451 kts 297°
2026-05-04 01:31 50.57229 12.17141 36097 ft 453 kts 297°
2026-05-04 01:31 50.60486 12.08700 36096 ft 453 kts 297°
2026-05-04 01:32 50.63724 12.00275 36096 ft 453 kts 297°
2026-05-04 01:32 50.66991 11.91745 36096 ft 453 kts 297°
2026-05-04 01:33 50.70225 11.83276 36096 ft 453 kts 297°
2026-05-04 01:33 50.73443 11.74818 36096 ft 453 kts 297°
2026-05-04 01:34 50.76694 11.66245 36080 ft 457 kts 297°
2026-05-04 01:34 50.79938 11.57664 36075 ft 455 kts 297°
2026-05-04 01:35 50.83181 11.49057 36074 ft 455 kts 297°
2026-05-04 01:35 50.86390 11.40510 36074 ft 455 kts 297°
2026-05-04 01:36 50.89617 11.31887 36079 ft 455 kts 296°
2026-05-04 01:36 50.92836 11.23257 36077 ft 455 kts 296°
2026-05-04 01:37 50.96063 11.14572 36080 ft 461 kts 296°
2026-05-04 01:37 50.99279 11.05893 36078 ft 460 kts 296°
2026-05-04 01:38 51.02515 10.97128 36078 ft 460 kts 296°
2026-05-04 01:38 51.05744 10.88352 36078 ft 460 kts 296°
2026-05-04 01:39 51.08945 10.79624 36078 ft 460 kts 296°
2026-05-04 01:39 51.12161 10.70823 36071 ft 459 kts 296°
2026-05-04 01:40 51.15363 10.62031 36071 ft 458 kts 296°
2026-05-04 01:40 51.18547 10.53256 36070 ft 458 kts 296°
2026-05-04 01:41 51.21717 10.44492 36070 ft 458 kts 296°
2026-05-04 01:41 51.24890 10.35653 36067 ft 457 kts 294°
2026-05-04 01:42 51.27684 10.26621 36074 ft 455 kts 291°
2026-05-04 01:42 51.30429 10.17554 36074 ft 453 kts 291°
2026-05-04 01:43 51.33145 10.08544 36074 ft 453 kts 291°
2026-05-04 01:43 51.35882 9.99434 36074 ft 453 kts 291°
2026-05-04 01:44 51.38590 9.90386 36073 ft 453 kts 291°
2026-05-04 01:44 51.41299 9.81301 36073 ft 453 kts 291°
2026-05-04 01:45 51.44003 9.72199 36073 ft 453 kts 291°
2026-05-04 01:45 51.48054 9.58496 36072 ft 453 kts 291°
2026-05-04 01:46 51.50740 9.49368 36072 ft 453 kts 291°
2026-05-04 01:46 51.53420 9.40225 36072 ft 453 kts 291°
2026-05-04 01:47 51.56090 9.31080 36077 ft 453 kts 290°
2026-05-04 01:47 51.58740 9.21974 36078 ft 452 kts 290°
2026-05-04 01:48 51.61382 9.12857 36077 ft 450 kts 290°
2026-05-04 01:48 51.64016 9.03728 36076 ft 450 kts 290°
2026-05-04 01:49 51.66644 8.94589 36055 ft 450 kts 290°
2026-05-04 01:49 51.69256 8.85473 36055 ft 450 kts 290°
2026-05-04 01:50 51.71870 8.76312 36054 ft 450 kts 290°
2026-05-04 01:50 51.74469 8.67166 36054 ft 451 kts 290°
2026-05-04 01:51 51.77083 8.57930 36055 ft 455 kts 290°
2026-05-04 01:51 51.79696 8.48665 36053 ft 455 kts 290°
2026-05-04 01:52 51.82311 8.39359 36054 ft 455 kts 290°
2026-05-04 01:52 51.84928 8.30005 36058 ft 455 kts 290°
2026-05-04 01:53 51.87516 8.20719 36059 ft 453 kts 290°
2026-05-04 01:53 51.90093 8.11435 36058 ft 452 kts 290°
2026-05-04 01:54 51.92652 8.02178 36058 ft 452 kts 290°
2026-05-04 01:54 51.95209 7.92893 36057 ft 452 kts 290°
2026-05-04 01:55 51.97762 7.83582 36057 ft 452 kts 290°
2026-05-04 01:55 52.00275 7.74385 36057 ft 452 kts 290°
2026-05-04 01:56 52.02812 7.65059 36056 ft 450 kts 289°
2026-05-04 01:56 52.05319 7.55806 36056 ft 451 kts 289°
2026-05-04 01:57 52.07851 7.46425 36056 ft 451 kts 289°
2026-05-04 01:57 52.10351 7.37125 36053 ft 451 kts 289°
2026-05-04 01:58 52.12849 7.27792 36053 ft 450 kts 289°
2026-05-04 01:58 52.15328 7.18495 36053 ft 450 kts 288°
2026-05-04 01:59 52.17809 7.09151 36052 ft 450 kts 288°
2026-05-04 01:59 52.20283 6.99798 36052 ft 450 kts 288°
2026-05-04 02:00 52.22754 6.90414 36052 ft 450 kts 288°
2026-05-04 02:00 52.25209 6.81053 36051 ft 450 kts 289°
2026-05-04 02:01 52.27673 6.71615 36032 ft 456 kts 289°
2026-05-04 02:01 52.30136 6.62148 36030 ft 455 kts 289°
2026-05-04 02:02 52.32597 6.52649 36030 ft 455 kts 289°
2026-05-04 02:02 52.35066 6.43079 36029 ft 455 kts 289°
2026-05-04 02:03 52.37513 6.33551 36031 ft 455 kts 288°
2026-05-04 02:03 52.39939 6.24064 36034 ft 455 kts 288°
2026-05-04 02:04 52.42373 6.14506 36034 ft 456 kts 288°
2026-05-04 02:04 52.44801 6.04929 36034 ft 456 kts 288°
2026-05-04 02:05 52.47218 5.95356 36033 ft 456 kts 288°
2026-05-04 02:05 52.49626 5.85780 36033 ft 456 kts 288°
2026-05-04 02:06 52.52034 5.76159 36033 ft 456 kts 288°
2026-05-04 02:06 52.54438 5.66512 36033 ft 457 kts 288°
2026-05-04 02:07 52.56828 5.56883 36032 ft 457 kts 288°
2026-05-04 02:07 52.59205 5.47262 36032 ft 457 kts 288°
2026-05-04 02:08 52.61593 5.37556 36031 ft 457 kts 288°
2026-05-04 02:08 52.63960 5.27891 36036 ft 456 kts 287°
2026-05-04 02:09 52.66321 5.18208 36036 ft 457 kts 288°
2026-05-04 02:09 52.68665 5.08552 36036 ft 456 kts 288°
2026-05-04 02:10 52.71007 4.98860 36035 ft 456 kts 288°
2026-05-04 02:10 52.73356 4.89100 36035 ft 456 kts 288°
2026-05-04 02:11 52.75682 4.79385 36035 ft 456 kts 288°
2026-05-04 02:11 52.78011 4.69618 36036 ft 460 kts 288°
2026-05-04 02:12 52.80342 4.59797 36034 ft 459 kts 288°
2026-05-04 02:12 52.82646 4.50051 36034 ft 459 kts 288°
2026-05-04 02:13 52.84951 4.40252 36034 ft 459 kts 288°
2026-05-04 02:13 52.87255 4.30408 36037 ft 458 kts 287°
2026-05-04 02:14 52.89557 4.20533 36038 ft 460 kts 287°
2026-05-04 02:14 52.91840 4.10696 36037 ft 460 kts 287°
2026-05-04 02:15 52.94109 4.00867 36047 ft 459 kts 287°
2026-05-04 02:15 52.96381 3.90986 36057 ft 460 kts 287°
2026-05-04 02:16 52.98646 3.81086 36057 ft 459 kts 287°
2026-05-04 02:16 53.00907 3.71157 36056 ft 460 kts 287°
2026-05-04 02:17 53.03159 3.61218 36056 ft 460 kts 287°
2026-05-04 02:17 53.05386 3.51351 36049 ft 460 kts 287°
2026-05-04 02:18 53.07617 3.41412 36049 ft 460 kts 287°
2026-05-04 02:18 53.09665 3.31381 36034 ft 456 kts 279°
2026-05-04 02:19 53.10613 3.20994 36033 ft 455 kts 274°
2026-05-04 02:19 53.11410 3.10564 36032 ft 455 kts 274°
2026-05-04 02:20 53.12167 3.00095 36031 ft 455 kts 274°
2026-05-04 02:20 53.12893 2.89690 36031 ft 454 kts 274°
2026-05-04 02:21 53.13604 2.79257 36031 ft 454 kts 274°
2026-05-04 02:21 53.14298 2.68851 36031 ft 455 kts 274°
2026-05-04 02:22 53.14987 2.58364 36030 ft 455 kts 274°
2026-05-04 02:22 53.15661 2.47929 36030 ft 455 kts 274°
2026-05-04 02:23 53.16329 2.37452 36029 ft 455 kts 274°
2026-05-04 02:23 53.16982 2.27043 36033 ft 455 kts 273°
2026-05-04 02:24 53.17633 2.16527 36033 ft 456 kts 273°
2026-05-04 02:24 53.18271 2.06058 36032 ft 456 kts 273°
2026-05-04 02:25 53.18902 1.95559 36052 ft 456 kts 273°
2026-05-04 02:25 53.19526 1.85022 36052 ft 456 kts 273°
2026-05-04 02:26 53.20136 1.74536 36052 ft 456 kts 273°
2026-05-04 02:26 53.20738 1.64042 36052 ft 457 kts 273°
2026-05-04 02:27 53.21334 1.53496 36051 ft 457 kts 273°
2026-05-04 02:27 53.21920 1.42963 36051 ft 457 kts 273°
2026-05-04 02:28 53.22497 1.32403 36053 ft 457 kts 272°
2026-05-04 02:28 53.23062 1.21896 36053 ft 457 kts 273°
2026-05-04 02:29 53.23619 1.11372 36053 ft 458 kts 273°
2026-05-04 02:29 53.24157 1.01025 36053 ft 457 kts 273°
2026-05-04 02:30 53.24696 0.90475 36064 ft 457 kts 273°
2026-05-04 02:30 53.25225 0.79932 36073 ft 458 kts 273°
2026-05-04 02:31 53.25749 0.69326 36073 ft 458 kts 273°
2026-05-04 02:31 53.26259 0.58787 36073 ft 458 kts 273°
2026-05-04 02:32 53.26764 0.48173 36072 ft 458 kts 273°
2026-05-04 02:32 53.27258 0.37577 36072 ft 458 kts 273°
2026-05-04 02:33 53.27745 0.26934 36075 ft 458 kts 272°
2026-05-04 02:33 53.28218 0.16376 36075 ft 460 kts 272°
2026-05-04 02:34 53.28687 0.05709 36074 ft 459 kts 272°
2026-05-04 02:34 53.29470 -0.04833 36077 ft 461 kts 279°
2026-05-04 02:35 53.30637 -0.15343 36054 ft 460 kts 278°
2026-05-04 02:35 53.31759 -0.25840 36053 ft 460 kts 278°
2026-05-04 02:36 53.32862 -0.36445 36073 ft 464 kts 278°
2026-05-04 02:36 53.33946 -0.47060 36073 ft 462 kts 278°
2026-05-04 02:37 53.35006 -0.57600 36073 ft 462 kts 278°
2026-05-04 02:37 53.36062 -0.68222 36075 ft 462 kts 277°
2026-05-04 02:38 53.37108 -0.78843 36075 ft 463 kts 278°
2026-05-04 02:38 53.38142 -0.89459 36064 ft 464 kts 278°
2026-05-04 02:39 53.39169 -1.00106 36054 ft 463 kts 278°
2026-05-04 02:39 53.40184 -1.10745 36054 ft 463 kts 278°
2026-05-04 02:40 53.41192 -1.21401 36054 ft 463 kts 278°
2026-05-04 02:40 53.42183 -1.32018 36055 ft 465 kts 278°
2026-05-04 02:41 53.43181 -1.42791 36053 ft 465 kts 278°
2026-05-04 02:41 53.44157 -1.53450 36053 ft 465 kts 278°
2026-05-04 02:42 53.45125 -1.64112 36053 ft 465 kts 278°
2026-05-04 02:42 53.46091 -1.74879 36055 ft 465 kts 277°
2026-05-04 02:43 53.47042 -1.85586 36055 ft 468 kts 277°
2026-05-04 02:43 53.47985 -1.96311 36075 ft 467 kts 277°
2026-05-04 02:44 53.48927 -2.07142 36075 ft 467 kts 277°
2026-05-04 02:44 53.49853 -2.17914 36075 ft 467 kts 277°
2026-05-04 02:45 53.50764 -2.28624 36074 ft 467 kts 277°
2026-05-04 02:45 53.51673 -2.39434 36074 ft 467 kts 278°
2026-05-04 02:46 53.52573 -2.50239 36074 ft 467 kts 278°
2026-05-04 02:46 53.53455 -2.60961 36091 ft 466 kts 278°
2026-05-04 02:47 53.54333 -2.71769 36096 ft 467 kts 277°
2026-05-04 02:47 53.55204 -2.82600 36135 ft 467 kts 277°
2026-05-04 02:48 53.56063 -2.93408 36198 ft 467 kts 277°
2026-05-04 02:48 53.56910 -3.04196 36199 ft 467 kts 277°
2026-05-04 02:49 53.57745 -3.14953 36198 ft 467 kts 277°
2026-05-04 02:49 53.58574 -3.25772 36198 ft 467 kts 277°
2026-05-04 02:50 53.59394 -3.36607 36198 ft 468 kts 277°
2026-05-04 02:50 53.60205 -3.47437 36198 ft 468 kts 277°
2026-05-04 02:51 53.61010 -3.58335 36198 ft 468 kts 277°
2026-05-04 02:51 53.61778 -3.69159 36197 ft 468 kts 275°
2026-05-04 02:52 53.62222 -3.80089 36199 ft 470 kts 274°
2026-05-04 02:52 53.62648 -3.91091 36198 ft 471 kts 274°
2026-05-04 02:53 53.63075 -4.02083 36165 ft 471 kts 274°
2026-05-04 02:53 53.63497 -4.13044 36077 ft 471 kts 274°
2026-05-04 02:54 53.63914 -4.24059 36075 ft 471 kts 274°
2026-05-04 02:54 53.64321 -4.35053 36076 ft 476 kts 275°
2026-05-04 02:55 53.64923 -4.51722 36075 ft 475 kts 275°
2026-05-04 02:56 53.65310 -4.62802 36094 ft 475 kts 275°
2026-05-04 02:56 53.65687 -4.73908 36095 ft 475 kts 274°
2026-05-04 02:57 53.66055 -4.85065 36096 ft 479 kts 274°
2026-05-04 02:57 53.66421 -4.96293 36095 ft 480 kts 275°
2026-05-04 02:58 53.66774 -5.07444 36095 ft 480 kts 275°
2026-05-04 02:58 53.67118 -5.18701 36095 ft 480 kts 275°
2026-05-04 02:59 53.67442 -5.29905 36094 ft 480 kts 275°
2026-05-04 02:59 53.67757 -5.41132 36095 ft 482 kts 275°
2026-05-04 03:00 53.67603 -5.52388 36092 ft 485 kts 262°
2026-05-04 03:00 53.66221 -5.63462 36095 ft 482 kts 259°
2026-05-04 03:01 53.64757 -5.74479 36094 ft 483 kts 259°
2026-05-04 03:01 53.63271 -5.85573 36095 ft 485 kts 259°
2026-05-04 03:02 53.61787 -5.96571 36095 ft 485 kts 259°
2026-05-04 03:02 53.60286 -6.07606 36095 ft 485 kts 259°
2026-05-04 03:03 53.58784 -6.18569 36095 ft 485 kts 259°
2026-05-04 03:03 53.57269 -6.29541 36096 ft 485 kts 259°
2026-05-04 03:04 53.55724 -6.40649 36096 ft 486 kts 259°
2026-05-04 03:04 53.54180 -6.51675 36096 ft 486 kts 259°
2026-05-04 03:05 53.52626 -6.62688 36097 ft 486 kts 259°
2026-05-04 03:05 53.51068 -6.73651 36095 ft 486 kts 258°
2026-05-04 03:06 53.49488 -6.84682 36095 ft 487 kts 258°
2026-05-04 03:06 53.47903 -6.95678 36095 ft 487 kts 258°
2026-05-04 03:07 53.46307 -7.06669 36096 ft 486 kts 258°
2026-05-04 03:07 53.44701 -7.17657 36096 ft 486 kts 258°
2026-05-04 03:08 53.43076 -7.28690 36097 ft 486 kts 258°
2026-05-04 03:08 53.41445 -7.39683 36097 ft 486 kts 258°
2026-05-04 03:09 53.39818 -7.50584 36097 ft 486 kts 258°
2026-05-04 03:09 53.38164 -7.61583 36097 ft 486 kts 258°
2026-05-04 03:10 53.36511 -7.72499 36096 ft 486 kts 257°
2026-05-04 03:10 53.34843 -7.83448 36050 ft 487 kts 257°
2026-05-04 03:11 53.33160 -7.94414 36035 ft 487 kts 257°
2026-05-04 03:11 53.31470 -8.05348 36035 ft 487 kts 257°
2026-05-04 03:12 53.29778 -8.16229 36035 ft 487 kts 257°
2026-05-04 03:12 53.28068 -8.27153 36036 ft 487 kts 257°
2026-05-04 03:13 53.26345 -8.38083 36036 ft 486 kts 257°
2026-05-04 03:13 53.24622 -8.48943 36035 ft 487 kts 257°
2026-05-04 03:14 53.22869 -8.59926 36117 ft 492 kts 257°
2026-05-04 03:14 53.21102 -8.70920 36117 ft 491 kts 256°
2026-05-04 03:15 53.19329 -8.81874 36117 ft 491 kts 256°
2026-05-04 03:15 53.17546 -8.92825 36118 ft 491 kts 256°
2026-05-04 03:16 53.15746 -9.03805 36118 ft 491 kts 256°
2026-05-04 03:16 53.13942 -9.14746 36119 ft 491 kts 256°
2026-05-04 03:17 53.12128 -9.25672 36119 ft 491 kts 256°
2026-05-04 03:17 53.10302 -9.36599 36120 ft 490 kts 256°
2026-05-04 03:18 53.08474 -9.47474 36120 ft 490 kts 256°
2026-05-04 03:18 53.06634 -9.58349 36121 ft 490 kts 256°
2026-05-04 03:19 53.04780 -9.69242 36118 ft 491 kts 256°
2026-05-04 03:19 53.02920 -9.80099 36118 ft 490 kts 256°
2026-05-04 03:20 53.01040 -9.91006 36119 ft 490 kts 256°
2026-05-04 03:20 52.99166 -10.01815 36119 ft 490 kts 256°
2026-05-04 03:21 52.97277 -10.12639 36120 ft 490 kts 256°
2026-05-04 03:21 52.95374 -10.23483 36120 ft 489 kts 256°
2026-05-04 03:22 52.93467 -10.34281 36121 ft 489 kts 256°
2026-05-04 03:22 52.91555 -10.45042 36059 ft 490 kts 256°
2026-05-04 03:23 52.89619 -10.55874 36036 ft 489 kts 256°
2026-05-04 03:23 52.87689 -10.66609 36032 ft 489 kts 255°
2026-05-04 03:24 52.85748 -10.77344 36031 ft 490 kts 255°
2026-05-04 03:24 52.83790 -10.88106 36031 ft 489 kts 255°
2026-05-04 03:25 52.81820 -10.98871 36032 ft 489 kts 255°
2026-05-04 03:25 52.79848 -11.09587 36032 ft 489 kts 255°
2026-05-04 03:26 52.77862 -11.20310 36032 ft 489 kts 255°
2026-05-04 03:26 52.75871 -11.31006 36032 ft 488 kts 255°
2026-05-04 03:27 52.73867 -11.41708 36034 ft 491 kts 255°
2026-05-04 03:27 52.71832 -11.52512 36033 ft 492 kts 255°
2026-05-04 03:28 52.69801 -11.63237 36034 ft 492 kts 255°
2026-05-04 03:28 52.67768 -11.73905 36032 ft 492 kts 254°
2026-05-04 03:29 52.65715 -11.84623 36032 ft 491 kts 254°
2026-05-04 03:29 52.63645 -11.95366 36033 ft 491 kts 254°
2026-05-04 03:30 52.61572 -12.06065 36033 ft 491 kts 254°
2026-05-04 03:30 52.59492 -12.16742 36033 ft 491 kts 254°
2026-05-04 03:31 52.57404 -12.27401 36035 ft 491 kts 254°
2026-05-04 03:31 52.55304 -12.38059 36035 ft 490 kts 254°
2026-05-04 03:32 52.53200 -12.48679 36035 ft 490 kts 254°
2026-05-04 03:32 52.51086 -12.59290 36035 ft 490 kts 254°
2026-05-04 03:33 52.48975 -12.69836 36033 ft 490 kts 253°
2026-05-04 03:33 52.46847 -12.80402 36033 ft 489 kts 253°
2026-05-04 03:34 52.44704 -12.90991 36034 ft 489 kts 253°
2026-05-04 03:34 52.42552 -13.01562 36034 ft 489 kts 253°
2026-05-04 03:35 52.40405 -13.12059 36035 ft 489 kts 253°
2026-05-04 03:35 52.38237 -13.22593 36035 ft 489 kts 253°
2026-05-04 03:36 52.36061 -13.33120 36035 ft 488 kts 254°
2026-05-04 03:36 52.33877 -13.43625 36036 ft 488 kts 254°
2026-05-04 03:37 52.31692 -13.54079 36036 ft 488 kts 254°
2026-05-04 03:37 52.29491 -13.64557 36037 ft 488 kts 254°
2026-05-04 03:38 52.27271 -13.75072 36035 ft 488 kts 253°
2026-05-04 03:38 52.25065 -13.85463 36035 ft 487 kts 253°
2026-05-04 03:39 52.22830 -13.95943 36036 ft 492 kts 253°
2026-05-04 03:39 52.20592 -14.06378 36036 ft 490 kts 253°
2026-05-04 03:40 52.18338 -14.16836 36037 ft 490 kts 253°
2026-05-04 03:40 52.16061 -14.27343 36038 ft 490 kts 253°
2026-05-04 03:41 52.13798 -14.37737 36038 ft 489 kts 253°
2026-05-04 03:41 52.11528 -14.48107 36038 ft 489 kts 253°
2026-05-04 03:42 52.09238 -14.58518 36038 ft 489 kts 253°
2026-05-04 03:42 52.06952 -14.68861 36037 ft 489 kts 252°
2026-05-04 03:43 52.04636 -14.79281 36037 ft 488 kts 252°
2026-05-04 03:43 52.02332 -14.89602 36038 ft 488 kts 252°
2026-05-04 03:44 52.00819 -15.00153 36033 ft 481 kts 268°
2026-05-04 03:44 52.01160 -15.10931 36448 ft 475 kts 285°
2026-05-04 03:44 52.02023 -15.16021 36873 ft 467 kts 294°
2026-05-04 03:45 52.03326 -15.20804 37199 ft 461 kts 300°
2026-05-04 03:45 52.04741 -15.25510 37444 ft 462 kts 299°
2026-05-04 03:45 52.06074 -15.30245 37700 ft 462 kts 297°
2026-05-04 03:45 52.07339 -15.35028 37946 ft 461 kts 296°
2026-05-04 03:46 52.08550 -15.39834 38055 ft 463 kts 295°
2026-05-04 03:46 52.10883 -15.49568 38062 ft 463 kts 294°
2026-05-04 03:47 52.13139 -15.59396 38063 ft 463 kts 294°
2026-05-04 03:47 52.15330 -15.69180 38061 ft 464 kts 293°
2026-05-04 03:48 52.17504 -15.79036 38061 ft 463 kts 292°
2026-05-04 03:48 52.19662 -15.88920 38061 ft 463 kts 292°
2026-05-04 03:49 52.21809 -15.98825 38061 ft 463 kts 292°
2026-05-04 03:49 52.23930 -16.08678 38061 ft 463 kts 292°
2026-05-04 03:50 52.26051 -16.18584 38060 ft 462 kts 292°
2026-05-04 03:50 52.28148 -16.28430 38062 ft 461 kts 292°
2026-05-04 03:51 52.30244 -16.38317 38061 ft 460 kts 292°
2026-05-04 03:51 52.32319 -16.48156 38060 ft 460 kts 292°
2026-05-04 03:52 52.34390 -16.58025 38060 ft 460 kts 292°
2026-05-04 03:52 52.36451 -16.67898 38060 ft 460 kts 291°
2026-05-04 03:53 52.38518 -16.77849 38060 ft 460 kts 291°
2026-05-04 03:53 52.40560 -16.87726 38060 ft 460 kts 291°
2026-05-04 03:54 52.42592 -16.97603 38059 ft 460 kts 291°
2026-05-04 03:54 52.44635 -17.07583 38059 ft 460 kts 291°
2026-05-04 03:55 52.46654 -17.17499 38059 ft 460 kts 291°
2026-05-04 03:55 52.48668 -17.27436 38059 ft 460 kts 291°
2026-05-04 03:56 52.50667 -17.37352 38059 ft 460 kts 291°
2026-05-04 03:56 52.52670 -17.47338 38059 ft 460 kts 291°
2026-05-04 03:57 52.54652 -17.57271 38059 ft 460 kts 291°
2026-05-04 03:57 52.56624 -17.67203 38058 ft 460 kts 290°
2026-05-04 03:58 52.59576 -17.82165 38057 ft 458 kts 290°
2026-05-04 03:58 52.61527 -17.92121 38058 ft 458 kts 290°
2026-05-04 03:59 52.63468 -18.02072 38058 ft 458 kts 290°
2026-05-04 03:59 52.65409 -18.12081 38058 ft 458 kts 290°
2026-05-04 04:00 52.67331 -18.22037 38058 ft 458 kts 290°
2026-05-04 04:00 52.69242 -18.31993 38056 ft 456 kts 290°
2026-05-04 04:01 52.71146 -18.41962 38057 ft 456 kts 290°
2026-05-04 04:01 52.73040 -18.51933 38057 ft 456 kts 290°
2026-05-04 04:02 52.74930 -18.61935 38057 ft 456 kts 290°
2026-05-04 04:02 52.76800 -18.71886 38058 ft 457 kts 289°
2026-05-04 04:03 52.78664 -18.81856 38057 ft 456 kts 289°
2026-05-04 04:03 52.80533 -18.91908 38057 ft 456 kts 289°
2026-05-04 04:04 52.82372 -19.01849 38057 ft 456 kts 289°
2026-05-04 04:04 52.84221 -19.11900 38057 ft 456 kts 289°
2026-05-04 04:05 52.86055 -19.21923 38057 ft 456 kts 289°
2026-05-04 04:05 52.87873 -19.31913 38058 ft 457 kts 288°
2026-05-04 04:06 52.89684 -19.41921 38057 ft 457 kts 288°
2026-05-04 04:06 52.91489 -19.51952 38057 ft 457 kts 288°
2026-05-04 04:07 52.93292 -19.62026 38057 ft 457 kts 288°
2026-05-04 04:07 52.95081 -19.72075 38057 ft 457 kts 288°
2026-05-04 04:08 52.96866 -19.82161 38056 ft 454 kts 288°
2026-05-04 04:08 52.98631 -19.92188 38057 ft 455 kts 288°
2026-05-04 04:09 52.99952 -20.02381 38056 ft 457 kts 277°
2026-05-04 04:09 53.00466 -20.12904 38056 ft 457 kts 276°
2026-05-04 04:10 53.00925 -20.23410 38056 ft 457 kts 276°
2026-05-04 04:10 53.01359 -20.33938 38056 ft 456 kts 276°
2026-05-04 04:11 53.01774 -20.44420 38056 ft 457 kts 276°
2026-05-04 04:11 53.02176 -20.54921 38056 ft 457 kts 276°
2026-05-04 04:12 53.02566 -20.65419 38056 ft 457 kts 275°
2026-05-04 04:12 53.02947 -20.75921 38057 ft 457 kts 275°
2026-05-04 04:13 53.03316 -20.86428 38057 ft 456 kts 275°
2026-05-04 04:13 53.03675 -20.96869 38057 ft 456 kts 275°
2026-05-04 04:14 53.04028 -21.07424 38057 ft 456 kts 275°
2026-05-04 04:14 53.04369 -21.17897 38056 ft 456 kts 275°
2026-05-04 04:15 53.04702 -21.28416 38057 ft 456 kts 274°
2026-05-04 04:15 53.05023 -21.38872 38056 ft 455 kts 274°
2026-05-04 04:16 53.05338 -21.49388 38056 ft 456 kts 274°
2026-05-04 04:16 53.05642 -21.59899 38056 ft 456 kts 274°
2026-05-04 04:17 53.05937 -21.70379 38058 ft 456 kts 274°
2026-05-04 04:17 53.06223 -21.80881 38057 ft 455 kts 274°
2026-05-04 04:18 53.06499 -21.91379 38058 ft 455 kts 274°
2026-05-04 04:18 53.06766 -22.01847 38057 ft 455 kts 274°
2026-05-04 04:19 53.07023 -22.12308 38057 ft 455 kts 274°
2026-05-04 04:19 53.07272 -22.22831 38057 ft 455 kts 274°
2026-05-04 04:20 53.07511 -22.33300 38056 ft 454 kts 273°
2026-05-04 04:20 53.07740 -22.43758 38056 ft 454 kts 273°
2026-05-04 04:21 53.07962 -22.54306 38056 ft 454 kts 273°
2026-05-04 04:21 53.08173 -22.64721 38056 ft 454 kts 273°
2026-05-04 04:22 53.08375 -22.75231 38058 ft 455 kts 272°
2026-05-04 04:22 53.08568 -22.85698 38058 ft 453 kts 272°
2026-05-04 04:23 53.08752 -22.96204 38057 ft 454 kts 272°
2026-05-04 04:23 53.08926 -23.06656 38057 ft 454 kts 272°
2026-05-04 04:24 53.09091 -23.17095 38057 ft 454 kts 272°
2026-05-04 04:24 53.09247 -23.27576 38058 ft 453 kts 272°
2026-05-04 04:25 53.09393 -23.38028 38056 ft 453 kts 272°
2026-05-04 04:25 53.09531 -23.48506 38056 ft 455 kts 272°
2026-05-04 04:26 53.09660 -23.58993 38056 ft 454 kts 272°
2026-05-04 04:26 53.09779 -23.69455 38058 ft 454 kts 271°
2026-05-04 04:27 53.09889 -23.79965 38058 ft 454 kts 271°
2026-05-04 04:27 53.09989 -23.90429 38058 ft 454 kts 271°
2026-05-04 04:28 53.10082 -24.00967 38060 ft 454 kts 271°
2026-05-04 04:28 53.10164 -24.11448 38059 ft 454 kts 271°
2026-05-04 04:29 53.10237 -24.21914 38059 ft 454 kts 271°
2026-05-04 04:29 53.10301 -24.32379 38058 ft 452 kts 271°
2026-05-04 04:30 53.10356 -24.42841 38058 ft 453 kts 271°
2026-05-04 04:30 53.10401 -24.53292 38058 ft 452 kts 271°
2026-05-04 04:31 53.10437 -24.63685 38058 ft 452 kts 271°
2026-05-04 04:31 53.10465 -24.74141 38060 ft 453 kts 270°
2026-05-04 04:32 53.10483 -24.84632 38060 ft 452 kts 270°
2026-05-04 04:32 53.10492 -24.95068 38059 ft 452 kts 270°
2026-05-04 04:33 53.10492 -25.05506 38059 ft 452 kts 270°
2026-05-04 04:33 53.10482 -25.15938 38059 ft 452 kts 270°
2026-05-04 04:34 53.10464 -25.26359 38059 ft 452 kts 270°
2026-05-04 04:34 53.10436 -25.36769 38058 ft 451 kts 270°
2026-05-04 04:35 53.10399 -25.47245 38058 ft 451 kts 270°
2026-05-04 04:35 53.10354 -25.57638 38058 ft 451 kts 270°
2026-05-04 04:36 53.10298 -25.68051 38060 ft 451 kts 270°
2026-05-04 04:36 53.10235 -25.78473 38060 ft 451 kts 270°
2026-05-04 04:37 53.10080 -25.99299 38059 ft 451 kts 270°
2026-05-04 04:38 53.09988 -26.09733 38059 ft 451 kts 270°
2026-05-04 04:38 53.09888 -26.20128 38059 ft 451 kts 270°
2026-05-04 04:39 53.09778 -26.30622 38057 ft 450 kts 269°
2026-05-04 04:39 53.09660 -26.40973 38058 ft 450 kts 269°
2026-05-04 04:40 53.09533 -26.51342 38057 ft 450 kts 269°
2026-05-04 04:40 53.09397 -26.61713 38057 ft 450 kts 269°
2026-05-04 04:41 53.09251 -26.72107 38060 ft 450 kts 269°
2026-05-04 04:41 53.09097 -26.82476 38059 ft 448 kts 268°
2026-05-04 04:42 53.08935 -26.92792 38059 ft 448 kts 268°
2026-05-04 04:42 53.08763 -27.03145 38059 ft 448 kts 268°
2026-05-04 04:43 53.08582 -27.13522 38058 ft 448 kts 268°
2026-05-04 04:43 53.08393 -27.23840 38058 ft 448 kts 268°
2026-05-04 04:44 53.08194 -27.34183 38058 ft 449 kts 269°
2026-05-04 04:44 53.07986 -27.44545 38057 ft 449 kts 269°
2026-05-04 04:45 53.07769 -27.54888 38057 ft 449 kts 269°
2026-05-04 04:47 53.06940 -27.91118 38060 ft 448 kts 268°
2026-05-04 04:47 53.06683 -28.01436 38059 ft 448 kts 268°
2026-05-04 04:48 53.06418 -28.11748 38059 ft 448 kts 268°
2026-05-04 04:49 53.05715 -28.37555 38058 ft 447 kts 268°
2026-05-04 04:49 53.05419 -28.47837 38057 ft 447 kts 268°
2026-05-04 04:50 53.05114 -28.58130 38061 ft 447 kts 268°
2026-05-04 04:50 53.04800 -28.68433 38098 ft 449 kts 267°
2026-05-04 04:51 53.04476 -28.78758 38068 ft 448 kts 267°
2026-05-04 04:51 53.04142 -28.89098 38159 ft 449 kts 267°
2026-05-04 04:52 53.03800 -28.99439 38163 ft 448 kts 267°
2026-05-04 04:52 53.03449 -29.09776 38163 ft 448 kts 267°
2026-05-04 04:53 53.03090 -29.20057 38162 ft 448 kts 267°
2026-05-04 04:53 53.02720 -29.30417 38163 ft 449 kts 267°
2026-05-04 04:54 53.02343 -29.40736 38162 ft 449 kts 267°
2026-05-04 04:54 53.01956 -29.51057 38161 ft 449 kts 267°
2026-05-04 04:55 53.01559 -29.61394 38161 ft 449 kts 267°
2026-05-04 04:55 53.01157 -29.71667 38164 ft 449 kts 266°
2026-05-04 04:56 53.00743 -29.81986 38163 ft 448 kts 266°
2026-05-04 04:56 53.00321 -29.92293 38164 ft 448 kts 266°
2026-05-04 04:57 52.99913 -30.02601 38158 ft 448 kts 270°
2026-05-04 04:57 53.00338 -30.12903 38163 ft 448 kts 275°
2026-05-04 04:58 53.00851 -30.23211 38162 ft 447 kts 275°
2026-05-04 04:58 53.01308 -30.33489 38162 ft 446 kts 275°
2026-05-04 04:59 53.01730 -30.43740 38162 ft 446 kts 274°
2026-05-04 04:59 53.02134 -30.54027 38161 ft 446 kts 274°
2026-05-04 05:00 53.02522 -30.64318 38161 ft 446 kts 274°
2026-05-04 05:01 53.03079 -30.79699 38178 ft 444 kts 274°
2026-05-04 05:01 53.03437 -30.89927 38245 ft 445 kts 274°
2026-05-04 05:02 53.03786 -31.00161 38245 ft 444 kts 274°
2026-05-04 05:02 53.04126 -31.10401 38245 ft 444 kts 274°
2026-05-04 05:03 53.04456 -31.20628 38244 ft 444 kts 274°
2026-05-04 05:04 53.05089 -31.41028 38243 ft 443 kts 273°
2026-05-04 05:04 53.05393 -31.51267 38243 ft 443 kts 273°
2026-05-04 05:06 53.06519 -31.92152 38245 ft 444 kts 272°
2026-05-04 05:07 53.06781 -32.02436 38245 ft 444 kts 272°
2026-05-04 05:07 53.07032 -32.12671 38244 ft 444 kts 272°
2026-05-04 05:09 53.08055 -32.58836 38242 ft 445 kts 272°
2026-05-04 05:10 53.08258 -32.69094 38246 ft 445 kts 271°
2026-05-04 05:10 53.08453 -32.79395 38245 ft 444 kts 271°
2026-05-04 05:11 53.08638 -32.89608 38245 ft 444 kts 271°
2026-05-04 05:11 53.08815 -32.99899 38245 ft 444 kts 271°
2026-05-04 05:12 53.08981 -33.10096 38244 ft 444 kts 271°
2026-05-04 05:12 53.09140 -33.20347 38244 ft 444 kts 271°
2026-05-04 05:13 53.09290 -33.30611 38243 ft 443 kts 271°
2026-05-04 05:13 53.09431 -33.40827 38243 ft 443 kts 271°
2026-05-04 05:14 53.09564 -33.51098 38242 ft 443 kts 271°
2026-05-04 05:14 53.09687 -33.61285 38242 ft 443 kts 271°
2026-05-04 05:15 53.09801 -33.71561 38246 ft 443 kts 271°
2026-05-04 05:15 53.09907 -33.81771 38246 ft 445 kts 270°
2026-05-04 05:16 53.10004 -33.92043 38245 ft 445 kts 270°
2026-05-04 05:16 53.10092 -34.02251 38244 ft 445 kts 270°
2026-05-04 05:17 53.10172 -34.12481 38244 ft 445 kts 270°
2026-05-04 05:17 53.10243 -34.22778 38244 ft 445 kts 270°
2026-05-04 05:18 53.10305 -34.33088 38243 ft 446 kts 270°
2026-05-04 05:18 53.10359 -34.43420 38243 ft 445 kts 270°
2026-05-04 05:19 53.10403 -34.53677 38242 ft 445 kts 270°
2026-05-04 05:19 53.10439 -34.63954 38242 ft 445 kts 270°
2026-05-04 05:20 53.10465 -34.74271 38245 ft 445 kts 270°
2026-05-04 05:20 53.10483 -34.84591 38245 ft 446 kts 270°
2026-05-04 05:21 53.10492 -34.94881 38245 ft 446 kts 270°
2026-05-04 05:21 53.10492 -35.05195 38244 ft 446 kts 270°
2026-05-04 05:22 53.10483 -35.15425 38244 ft 446 kts 270°
2026-05-04 05:22 53.10465 -35.25756 38243 ft 446 kts 270°
2026-05-04 05:23 53.10438 -35.36070 38243 ft 446 kts 270°
2026-05-04 05:23 53.10403 -35.46370 38243 ft 446 kts 270°
2026-05-04 05:24 53.10358 -35.56643 38242 ft 446 kts 270°
2026-05-04 05:24 53.10305 -35.66896 38244 ft 446 kts 269°
2026-05-04 05:25 53.10243 -35.77196 38245 ft 446 kts 269°
2026-05-04 05:25 53.10171 -35.87555 38245 ft 446 kts 269°
2026-05-04 05:26 53.10092 -35.97824 38245 ft 446 kts 269°
2026-05-04 05:26 53.10003 -36.08129 38244 ft 446 kts 269°
2026-05-04 05:28 53.09559 -36.49287 38243 ft 446 kts 269°
2026-05-04 05:29 53.09425 -36.59656 38242 ft 446 kts 269°
2026-05-04 05:29 53.09283 -36.69937 38246 ft 446 kts 268°
2026-05-04 05:31 53.08624 -37.11179 38244 ft 447 kts 268°
2026-05-04 05:32 53.08436 -37.21510 38244 ft 447 kts 268°
2026-05-04 05:33 53.08140 -37.36930 38243 ft 446 kts 268°
2026-05-04 05:33 53.07930 -37.47269 38243 ft 446 kts 268°
2026-05-04 05:34 53.07712 -37.57556 38242 ft 446 kts 268°
2026-05-04 05:34 53.07487 -37.67784 38245 ft 446 kts 268°
2026-05-04 05:35 53.07251 -37.78089 38246 ft 446 kts 268°
2026-05-04 05:35 53.07006 -37.88392 38245 ft 445 kts 268°
2026-05-04 05:36 53.06753 -37.98638 38245 ft 445 kts 268°
2026-05-04 05:36 53.06490 -38.08979 38244 ft 445 kts 268°
2026-05-04 05:37 53.06220 -38.19252 38244 ft 445 kts 268°
2026-05-04 05:37 53.05940 -38.29509 38243 ft 444 kts 268°
2026-05-04 05:38 53.05505 -38.44862 38242 ft 444 kts 268°
2026-05-04 05:38 53.05207 -38.55034 38242 ft 444 kts 268°
2026-05-04 05:39 53.04738 -38.70422 38246 ft 444 kts 267°
2026-05-04 05:40 53.04252 -38.85743 38245 ft 442 kts 267°
2026-05-04 05:40 53.03918 -38.95907 38245 ft 442 kts 267°
2026-05-04 05:41 53.03574 -39.06109 38244 ft 442 kts 267°
2026-05-04 05:41 53.03223 -39.16293 38244 ft 442 kts 267°
2026-05-04 05:42 53.02864 -39.26431 38243 ft 442 kts 267°
2026-05-04 05:42 53.02493 -39.36662 38243 ft 443 kts 267°
2026-05-04 05:43 53.02114 -39.46866 38242 ft 443 kts 267°
2026-05-04 05:45 53.00514 -39.87601 38245 ft 445 kts 266°
2026-05-04 05:47 52.98368 -40.28377 38243 ft 445 kts 265°
2026-05-04 05:47 52.97765 -40.38609 38243 ft 445 kts 265°
2026-05-04 05:48 52.97150 -40.48873 38242 ft 445 kts 265°
2026-05-04 05:48 52.96529 -40.59087 38242 ft 445 kts 265°
2026-05-04 05:49 52.95902 -40.69258 38246 ft 445 kts 264°
2026-05-04 05:49 52.95266 -40.79430 38245 ft 445 kts 264°
2026-05-04 05:51 52.92623 -41.20255 38244 ft 446 kts 264°
2026-05-04 05:52 52.91939 -41.30471 38243 ft 445 kts 264°
2026-05-04 05:52 52.91250 -41.40640 38242 ft 446 kts 264°
2026-05-04 05:54 52.88395 -41.81410 37909 ft 448 kts 263°
2026-05-04 05:55 52.87661 -41.91575 37840 ft 447 kts 263°
2026-05-04 05:55 52.86912 -42.01822 37838 ft 448 kts 263°
2026-05-04 05:56 52.86156 -42.12046 37837 ft 448 kts 263°
2026-05-04 05:56 52.85393 -42.22243 37797 ft 448 kts 263°
2026-05-04 05:57 52.84619 -42.32467 37792 ft 449 kts 263°
2026-05-04 05:57 52.83836 -42.42683 37835 ft 449 kts 264°
2026-05-04 05:58 52.83042 -42.52927 37789 ft 450 kts 263°
2026-05-04 05:58 52.82243 -42.63121 37771 ft 449 kts 263°
2026-05-04 05:59 52.81430 -42.73370 37775 ft 449 kts 263°
2026-05-04 05:59 52.80613 -42.83555 37775 ft 449 kts 263°
2026-05-04 06:00 52.79786 -42.93756 37774 ft 449 kts 263°
2026-05-04 06:00 52.78952 -43.03914 37769 ft 439 kts 265°
2026-05-04 06:01 52.78130 -43.13847 37831 ft 440 kts 265°
2026-05-04 06:03 52.74718 -43.54001 37906 ft 442 kts 265°
2026-05-04 06:05 52.71635 -43.88874 37885 ft 417 kts 265°
2026-05-04 06:05 52.70786 -43.98297 37916 ft 418 kts 265°
2026-05-04 06:06 52.69929 -44.07718 37913 ft 417 kts 265°
2026-05-04 06:06 52.69059 -44.17194 37913 ft 417 kts 265°
2026-05-04 06:07 52.68185 -44.26614 37914 ft 417 kts 265°
2026-05-04 06:07 52.67310 -44.35963 37910 ft 408 kts 265°
2026-05-04 06:08 52.66438 -44.45207 37910 ft 410 kts 265°
2026-05-04 06:08 52.65573 -44.54293 37909 ft 410 kts 265°
2026-05-04 06:09 52.64684 -44.63560 37908 ft 410 kts 265°
2026-05-04 06:11 52.61031 -45.00820 37915 ft 415 kts 264°
2026-05-04 06:13 52.57227 -45.38350 37914 ft 425 kts 264°
2026-05-04 06:14 52.53698 -45.72091 37882 ft 429 kts 263°
2026-05-04 06:15 52.52671 -45.81746 37881 ft 433 kts 262°
2026-05-04 06:15 52.51627 -45.91472 37881 ft 434 kts 262°
2026-05-04 06:16 52.50567 -46.01260 37880 ft 434 kts 262°
2026-05-04 06:16 52.49505 -46.10988 37880 ft 434 kts 262°
2026-05-04 06:17 52.48438 -46.20697 37879 ft 434 kts 262°
2026-05-04 06:17 52.47364 -46.30381 37879 ft 435 kts 261°
2026-05-04 06:18 52.46273 -46.40145 37878 ft 435 kts 261°
2026-05-04 06:20 52.41842 -46.79044 37881 ft 437 kts 260°
2026-05-04 06:21 52.38990 -47.03470 37880 ft 437 kts 260°
2026-05-04 06:22 52.37835 -47.13228 37880 ft 437 kts 260°
2026-05-04 06:25 52.29498 -47.81632 37880 ft 438 kts 258°
2026-05-04 06:26 52.28274 -47.91381 37881 ft 438 kts 258°
2026-05-04 06:26 52.27047 -48.01101 37880 ft 438 kts 258°
2026-05-04 06:27 52.23945 -48.25354 37878 ft 437 kts 258°
2026-05-04 06:28 52.22682 -48.35108 37878 ft 440 kts 257°
2026-05-04 06:28 52.21408 -48.44883 37877 ft 439 kts 257°
2026-05-04 06:29 52.20140 -48.54538 37877 ft 439 kts 257°
2026-05-04 06:29 52.18858 -48.64243 37876 ft 439 kts 257°
2026-05-04 06:30 52.17563 -48.73972 37881 ft 439 kts 257°
2026-05-04 06:30 52.16253 -48.83757 37880 ft 442 kts 256°
2026-05-04 06:31 52.14943 -48.93470 37879 ft 441 kts 256°
2026-05-04 06:31 52.13617 -49.03232 37878 ft 441 kts 256°
2026-05-04 06:33 52.08300 -49.41767 37878 ft 428 kts 256°
2026-05-04 06:34 52.06974 -49.51215 37875 ft 430 kts 256°
2026-05-04 06:34 52.05641 -49.60661 37874 ft 429 kts 256°
2026-05-04 06:36 52.00263 -49.97921 37874 ft 420 kts 251°
2026-05-04 06:37 51.98281 -50.06779 37876 ft 419 kts 248°
2026-05-04 06:37 51.96216 -50.15551 37875 ft 418 kts 248°
2026-05-04 06:38 51.94117 -50.24330 37864 ft 419 kts 248°
2026-05-04 06:40 51.85583 -50.59375 37858 ft 419 kts 247°
2026-05-04 06:40 51.83406 -50.68208 37864 ft 419 kts 246°
2026-05-04 06:41 51.81239 -50.76963 37865 ft 419 kts 246°
2026-05-04 06:41 51.79079 -50.85655 37864 ft 418 kts 246°
2026-05-04 06:42 51.76910 -50.94352 37863 ft 418 kts 246°
2026-05-04 06:44 51.68340 -51.28372 37859 ft 408 kts 244°
2026-05-04 06:44 51.66179 -51.36865 37858 ft 409 kts 244°
2026-05-04 06:45 51.64016 -51.45338 37858 ft 409 kts 244°
2026-05-04 06:45 51.61856 -51.53770 37857 ft 409 kts 244°
2026-05-04 06:46 51.59694 -51.62178 37856 ft 409 kts 244°
2026-05-04 06:46 51.57510 -51.70636 37862 ft 408 kts 244°
2026-05-04 06:48 51.48708 -52.04413 37837 ft 411 kts 243°
2026-05-04 06:50 51.39774 -52.38193 37751 ft 414 kts 242°
2026-05-04 06:51 51.37523 -52.46626 37751 ft 414 kts 242°
2026-05-04 06:51 51.35252 -52.55101 37803 ft 414 kts 242°
2026-05-04 06:52 51.32986 -52.63529 37753 ft 414 kts 242°
2026-05-04 06:52 51.30718 -52.71934 37754 ft 413 kts 242°
2026-05-04 06:53 51.28444 -52.80329 37787 ft 417 kts 241°
2026-05-04 06:53 51.26129 -52.88844 37806 ft 418 kts 241°
2026-05-04 06:54 51.23803 -52.97370 37784 ft 416 kts 241°
2026-05-04 06:54 51.21507 -53.05757 37750 ft 416 kts 241°
2026-05-04 06:55 51.19179 -53.14223 37749 ft 416 kts 241°
2026-05-04 06:55 51.16859 -53.22635 37799 ft 416 kts 241°
2026-05-04 06:57 51.06807 -53.56048 39236 ft 421 kts 239°
2026-05-04 06:58 51.05526 -53.60262 39388 ft 421 kts 239°
2026-05-04 06:58 51.04259 -53.64422 39528 ft 422 kts 240°
2026-05-04 06:58 51.02978 -53.68623 39686 ft 422 kts 239°
2026-05-04 06:58 51.01703 -53.72800 39802 ft 422 kts 239°
2026-05-04 06:59 50.99126 -53.81218 39812 ft 425 kts 239°
2026-05-04 06:59 50.96555 -53.89587 39834 ft 423 kts 239°
2026-05-04 07:01 50.86168 -54.23114 39876 ft 424 kts 239°
2026-05-04 07:02 50.83561 -54.31453 39878 ft 427 kts 238°
2026-05-04 07:02 50.80912 -54.39905 39876 ft 427 kts 238°
2026-05-04 07:03 50.78289 -54.48241 39875 ft 427 kts 238°
2026-05-04 07:03 50.75642 -54.56626 39874 ft 427 kts 238°
2026-05-04 07:04 50.72997 -54.64975 39875 ft 429 kts 238°
2026-05-04 07:04 50.70315 -54.73415 39876 ft 428 kts 237°
2026-05-04 07:05 50.67642 -54.81794 39876 ft 431 kts 237°
2026-05-04 07:05 50.64956 -54.90189 39875 ft 430 kts 237°
2026-05-04 07:06 50.60912 -55.02773 39874 ft 430 kts 237°
2026-05-04 07:07 50.58208 -55.11150 39873 ft 430 kts 237°
2026-05-04 07:09 50.47289 -55.44700 39871 ft 434 kts 237°
2026-05-04 07:09 50.44535 -55.53094 39870 ft 434 kts 237°
2026-05-04 07:10 50.41770 -55.61490 39869 ft 434 kts 237°
2026-05-04 07:12 50.30624 -55.95056 39868 ft 436 kts 236°
2026-05-04 07:12 50.27800 -56.03487 39868 ft 436 kts 236°
2026-05-04 07:13 50.24993 -56.11843 39867 ft 436 kts 236°
2026-05-04 07:13 50.22153 -56.20265 39836 ft 440 kts 236°
2026-05-04 07:14 50.15008 -56.41340 39796 ft 442 kts 236°
2026-05-04 07:15 50.12124 -56.49797 39796 ft 442 kts 236°
2026-05-04 07:15 50.09237 -56.58235 39795 ft 442 kts 236°
2026-05-04 07:16 50.06342 -56.66669 39795 ft 442 kts 235°
2026-05-04 07:16 50.03460 -56.75036 39794 ft 441 kts 235°
2026-05-04 07:17 50.00534 -56.83497 39724 ft 446 kts 235°
2026-05-04 07:17 49.97599 -56.91965 39615 ft 445 kts 235°
2026-05-04 07:18 49.94673 -57.00375 39578 ft 444 kts 234°
2026-05-04 07:18 49.91720 -57.08836 39577 ft 445 kts 234°
2026-05-04 07:19 49.88779 -57.17234 39594 ft 445 kts 235°
2026-05-04 07:19 49.85829 -57.25632 39594 ft 445 kts 234°
2026-05-04 07:20 49.82860 -57.34051 39594 ft 447 kts 234°
2026-05-04 07:20 49.79887 -57.42461 39594 ft 446 kts 234°
2026-05-04 07:22 49.67844 -57.76231 39589 ft 455 kts 234°
2026-05-04 07:23 49.64762 -57.84803 39590 ft 457 kts 234°
2026-05-04 07:23 49.61710 -57.93267 39589 ft 456 kts 234°
2026-05-04 07:24 49.58616 -58.01818 39589 ft 456 kts 234°
2026-05-04 07:24 49.55524 -58.10334 39589 ft 456 kts 234°
2026-05-04 07:26 49.43072 -58.44351 39587 ft 459 kts 234°
2026-05-04 07:27 49.39940 -58.52838 39587 ft 459 kts 234°
2026-05-04 07:27 49.36793 -58.61336 39587 ft 459 kts 234°
2026-05-04 07:28 49.33627 -58.69860 39584 ft 458 kts 233°
2026-05-04 07:28 49.30485 -58.78291 39584 ft 457 kts 234°
2026-05-04 07:29 49.27340 -58.86701 39584 ft 457 kts 234°
2026-05-04 07:29 49.24162 -58.95174 39584 ft 456 kts 234°
2026-05-04 07:30 49.21022 -59.03520 39583 ft 454 kts 235°
2026-05-04 07:30 49.17873 -59.11860 39583 ft 454 kts 235°
2026-05-04 07:31 49.14725 -59.20172 39582 ft 454 kts 235°
2026-05-04 07:33 49.01996 -59.53518 39580 ft 456 kts 236°
2026-05-04 07:33 48.98804 -59.61812 39580 ft 456 kts 236°
2026-05-04 07:34 48.95586 -59.70152 39580 ft 455 kts 235°
2026-05-04 07:34 48.92379 -59.78433 39573 ft 457 kts 234°
2026-05-04 07:35 48.89150 -59.86745 39592 ft 460 kts 234°
2026-05-04 07:35 48.85880 -59.95137 39593 ft 464 kts 235°
2026-05-04 07:36 48.82592 -60.03548 39592 ft 465 kts 235°
2026-05-04 07:38 48.69356 -60.37146 39628 ft 467 kts 234°
2026-05-04 07:38 48.66025 -60.45533 39627 ft 469 kts 234°
2026-05-04 07:39 48.62663 -60.53975 39626 ft 469 kts 234°
2026-05-04 07:39 48.59290 -60.62418 39626 ft 469 kts 234°
2026-05-04 07:40 48.55928 -60.70803 39624 ft 469 kts 234°
2026-05-04 07:40 48.52558 -60.79183 39624 ft 466 kts 234°
2026-05-04 07:41 48.49212 -60.87479 39625 ft 465 kts 234°
2026-05-04 07:41 48.45839 -60.95815 39623 ft 465 kts 234°
2026-05-04 07:42 48.42473 -61.04108 39623 ft 465 kts 234°
2026-05-04 07:42 48.39108 -61.12372 39623 ft 465 kts 234°
2026-05-04 07:43 48.35730 -61.20641 39622 ft 465 kts 234°
2026-05-04 07:43 48.32355 -61.28880 39621 ft 464 kts 234°
2026-05-04 07:44 48.28989 -61.37072 39622 ft 464 kts 234°
2026-05-04 07:44 48.25599 -61.45296 39621 ft 464 kts 234°
2026-05-04 07:45 48.22194 -61.53531 39621 ft 465 kts 234°
2026-05-04 07:45 48.18780 -61.61763 39620 ft 466 kts 234°
2026-05-04 07:46 48.15356 -61.69995 39620 ft 465 kts 234°
2026-05-04 07:46 48.11940 -61.78181 39609 ft 466 kts 234°
2026-05-04 07:47 48.08495 -61.86410 39509 ft 469 kts 234°
2026-05-04 07:49 47.94628 -62.19295 39445 ft 469 kts 234°
2026-05-04 07:49 47.91130 -62.27527 39446 ft 469 kts 234°
2026-05-04 07:50 47.87654 -62.35683 39455 ft 468 kts 234°
2026-05-04 07:50 47.84168 -62.43838 39455 ft 468 kts 234°
2026-05-04 07:51 47.80669 -62.51997 39454 ft 468 kts 234°
2026-05-04 07:51 47.77165 -62.60145 39454 ft 468 kts 234°
2026-05-04 07:52 47.73658 -62.68275 39453 ft 468 kts 234°
2026-05-04 07:52 47.70132 -62.76424 39454 ft 469 kts 234°
2026-05-04 07:54 47.56032 -63.08775 39468 ft 468 kts 234°
2026-05-04 07:55 47.52498 -63.16822 39572 ft 468 kts 234°
2026-05-04 07:55 47.48976 -63.24820 39672 ft 468 kts 234°
2026-05-04 07:56 47.45414 -63.32886 39677 ft 466 kts 234°
2026-05-04 07:56 47.41877 -63.40870 39677 ft 466 kts 234°
2026-05-04 07:57 47.38338 -63.48835 39677 ft 466 kts 234°
2026-05-04 07:57 47.34782 -63.56817 39676 ft 466 kts 234°
2026-05-04 07:58 47.31223 -63.64780 39676 ft 466 kts 234°
2026-05-04 07:58 47.27667 -63.72715 39677 ft 466 kts 234°
2026-05-04 07:59 47.24114 -63.80621 39674 ft 464 kts 234°
2026-05-04 07:59 47.20560 -63.88506 39676 ft 464 kts 234°
2026-05-04 08:00 47.16993 -63.96399 39676 ft 464 kts 234°
2026-05-04 08:02 47.02720 -64.27750 39675 ft 464 kts 234°
2026-05-04 08:02 46.99120 -64.35601 39674 ft 463 kts 234°
2026-05-04 08:03 46.95537 -64.43394 39674 ft 463 kts 234°
2026-05-04 08:03 46.91951 -64.51173 39673 ft 463 kts 234°
2026-05-04 08:04 46.88353 -64.58954 39679 ft 463 kts 234°
2026-05-04 08:04 46.84732 -64.66763 39680 ft 463 kts 234°
2026-05-04 08:05 46.81130 -64.74510 39681 ft 463 kts 234°
2026-05-04 08:05 46.77518 -64.82256 39680 ft 461 kts 234°
2026-05-04 08:06 46.73918 -64.89954 39686 ft 461 kts 234°
2026-05-04 08:06 46.70344 -64.97578 39765 ft 456 kts 234°
2026-05-04 08:08 46.55962 -65.28041 39776 ft 457 kts 234°
2026-05-04 08:11 46.39705 -65.62082 39786 ft 457 kts 234°
2026-05-04 08:11 46.34259 -65.73394 39869 ft 457 kts 234°
2026-05-04 08:12 46.30615 -65.80937 39974 ft 455 kts 234°
2026-05-04 08:12 46.26978 -65.88444 40079 ft 455 kts 234°
2026-05-04 08:13 46.23357 -65.95901 40152 ft 456 kts 234°
2026-05-04 08:13 46.19719 -66.03371 40153 ft 455 kts 234°
2026-05-04 08:14 46.16073 -66.10838 40106 ft 456 kts 234°
2026-05-04 08:16 46.01476 -66.40535 39898 ft 455 kts 234°
2026-05-04 08:16 45.97811 -66.47944 39897 ft 455 kts 234°
2026-05-04 08:17 45.94151 -66.55321 39897 ft 455 kts 234°
2026-05-04 08:17 45.90468 -66.62726 39896 ft 455 kts 234°
2026-05-04 08:19 45.75765 -66.92096 39903 ft 453 kts 234°
2026-05-04 08:20 45.72092 -66.99386 39903 ft 453 kts 234°
2026-05-04 08:20 45.68414 -67.06666 39902 ft 453 kts 234°
2026-05-04 08:21 45.64716 -67.13966 39902 ft 453 kts 234°
2026-05-04 08:21 45.61016 -67.21254 39962 ft 454 kts 234°
2026-05-04 08:22 45.57306 -67.28541 39965 ft 455 kts 234°
2026-05-04 08:24 45.42383 -67.57666 39963 ft 455 kts 234°
2026-05-04 08:24 45.38666 -67.64874 39962 ft 455 kts 234°
2026-05-04 08:25 45.34894 -67.72093 39963 ft 456 kts 230°
2026-05-04 08:25 45.30741 -67.78883 39965 ft 455 kts 229°
2026-05-04 08:27 45.13890 -68.05512 39964 ft 455 kts 229°
2026-05-04 08:28 45.09647 -68.12146 40017 ft 455 kts 229°
2026-05-04 08:28 45.05400 -68.18767 40018 ft 455 kts 229°
2026-05-04 08:29 45.01152 -68.25372 40018 ft 455 kts 229°
2026-05-04 08:31 44.84055 -68.51798 40020 ft 456 kts 229°
2026-05-04 08:33 44.66930 -68.78013 40024 ft 454 kts 229°
2026-05-04 08:35 44.49881 -69.03871 40021 ft 453 kts 229°
2026-05-04 08:35 44.45595 -69.10333 40020 ft 453 kts 229°
2026-05-04 08:37 44.30613 -69.32807 40053 ft 453 kts 229°
2026-05-04 08:38 44.26313 -69.39223 40047 ft 453 kts 229°
2026-05-04 08:38 44.22022 -69.45614 40050 ft 449 kts 229°
2026-05-04 08:40 44.04919 -69.70933 40071 ft 450 kts 228°
2026-05-04 08:41 44.00645 -69.77226 40072 ft 449 kts 228°
2026-05-04 08:41 43.96390 -69.83476 40071 ft 446 kts 228°
2026-05-04 08:42 43.92095 -69.89770 40069 ft 447 kts 228°
2026-05-04 08:42 43.87832 -69.96004 40072 ft 447 kts 228°
2026-05-04 08:43 43.83567 -70.02226 40071 ft 447 kts 228°
2026-05-04 08:43 43.79310 -70.08423 40071 ft 447 kts 228°
2026-05-04 08:44 43.75024 -70.14649 40070 ft 447 kts 228°
2026-05-04 08:46 43.58030 -70.39199 40067 ft 443 kts 229°
2026-05-04 08:46 43.53756 -70.45339 40067 ft 443 kts 229°
2026-05-04 08:47 43.49507 -70.51430 40080 ft 443 kts 229°
2026-05-04 08:47 43.45233 -70.57507 40076 ft 444 kts 225°
2026-05-04 08:48 43.40068 -70.62273 40075 ft 452 kts 207°
2026-05-04 08:48 43.34178 -70.65384 40081 ft 454 kts 204°
2026-05-04 08:49 43.28271 -70.68340 40086 ft 455 kts 203°
2026-05-04 08:50 43.07502 -70.78561 40085 ft 455 kts 204°
2026-05-04 08:51 43.01555 -70.81462 40085 ft 455 kts 204°
2026-05-04 08:51 42.95609 -70.84355 40085 ft 455 kts 204°
2026-05-04 08:52 42.89661 -70.87244 40084 ft 455 kts 204°
2026-05-04 08:52 42.83689 -70.90137 40087 ft 455 kts 204°
2026-05-04 08:54 42.59976 -71.01564 40106 ft 452 kts 204°
2026-05-04 08:55 42.54049 -71.04406 40105 ft 452 kts 204°
2026-05-04 08:55 42.48146 -71.07230 40118 ft 452 kts 204°
2026-05-04 09:01 41.86323 -71.36475 40124 ft 446 kts 205°
2026-05-04 09:01 41.80438 -71.39228 40130 ft 446 kts 205°
2026-05-04 09:02 41.74604 -71.42012 40126 ft 444 kts 209°
2026-05-04 09:02 41.69501 -71.46240 40132 ft 432 kts 223°
2026-05-04 09:03 41.64903 -71.51368 40128 ft 432 kts 224°
2026-05-04 09:03 41.60279 -71.56534 40127 ft 432 kts 224°
2026-05-04 09:04 41.55666 -71.61674 40127 ft 432 kts 224°
2026-05-04 09:04 41.51081 -71.66769 40142 ft 432 kts 223°
2026-05-04 09:05 41.46445 -71.71912 40158 ft 432 kts 223°
2026-05-04 09:05 41.41801 -71.77053 40157 ft 433 kts 223°
2026-05-04 09:06 41.37167 -71.82173 40156 ft 433 kts 223°
2026-05-04 09:07 41.21824 -71.99064 37425 ft 445 kts 224°
2026-05-04 09:08 41.19439 -72.01675 36517 ft 446 kts 224°
2026-05-04 09:08 41.17065 -72.04273 35632 ft 446 kts 224°
2026-05-04 09:08 41.14756 -72.06798 34763 ft 446 kts 224°
2026-05-04 09:08 41.12401 -72.09662 33808 ft 442 kts 231°
2026-05-04 09:09 41.10526 -72.12800 32907 ft 438 kts 240°
2026-05-04 09:09 41.09120 -72.16080 32046 ft 435 kts 247°
2026-05-04 09:09 41.08015 -72.19835 31110 ft 433 kts 253°
2026-05-04 09:09 41.07072 -72.23601 30424 ft 428 kts 254°
2026-05-04 09:10 41.06155 -72.27298 29936 ft 419 kts 254°
2026-05-04 09:10 41.05243 -72.30963 29276 ft 407 kts 254°
2026-05-04 09:10 41.04367 -72.34484 28189 ft 401 kts 254°
2026-05-04 09:10 41.03499 -72.37971 26987 ft 397 kts 254°
2026-05-04 09:11 41.02649 -72.41379 25849 ft 391 kts 254°
2026-05-04 09:11 41.01803 -72.44768 24700 ft 385 kts 254°
2026-05-04 09:11 41.00977 -72.48071 23540 ft 379 kts 254°
2026-05-04 09:11 41.00155 -72.51351 22348 ft 374 kts 254°
2026-05-04 09:12 40.99352 -72.54555 21147 ft 369 kts 254°
2026-05-04 09:12 40.98549 -72.57750 19913 ft 365 kts 254°
2026-05-04 09:14 40.92881 -72.78651 12084 ft 331 kts 238°
2026-05-04 09:14 40.91410 -72.80926 11656 ft 318 kts 226°
2026-05-04 09:14 40.89751 -72.82707 11446 ft 293 kts 222°
2026-05-04 09:14 40.88194 -72.84338 11210 ft 278 kts 223°
2026-05-04 09:15 40.86683 -72.85873 10921 ft 272 kts 221°
2026-05-04 09:15 40.85175 -72.87354 10490 ft 271 kts 221°
2026-05-04 09:15 40.83657 -72.88818 10065 ft 270 kts 220°
2026-05-04 09:15 40.82136 -72.90276 9648 ft 269 kts 220°
2026-05-04 09:17 40.70244 -73.01643 6689 ft 259 kts 220°
2026-05-04 09:18 40.68890 -73.03181 6357 ft 253 kts 235°
2026-05-04 09:18 40.68061 -73.05187 6036 ft 248 kts 249°
2026-05-04 09:18 40.67421 -73.07301 5773 ft 248 kts 251°
2026-05-04 09:18 40.66817 -73.09422 5570 ft 247 kts 251°
2026-05-04 09:19 40.66217 -73.11556 5404 ft 245 kts 251°
2026-05-04 09:19 40.65652 -73.13565 5259 ft 244 kts 251°
2026-05-04 09:19 40.65062 -73.15659 5109 ft 244 kts 251°
2026-05-04 09:19 40.64475 -73.17744 4958 ft 243 kts 251°
2026-05-04 09:20 40.63878 -73.19861 4804 ft 242 kts 251°
2026-05-04 09:20 40.63291 -73.21939 4674 ft 240 kts 251°
2026-05-04 09:20 40.62716 -73.23975 4573 ft 240 kts 251°
2026-05-04 09:20 40.62128 -73.26054 4470 ft 238 kts 251°
2026-05-04 09:21 40.61551 -73.28093 4369 ft 238 kts 251°
2026-05-04 09:21 40.60972 -73.30138 4253 ft 237 kts 251°
2026-05-04 09:21 40.60410 -73.32123 4143 ft 227 kts 251°
2026-05-04 09:21 40.59871 -73.34019 4040 ft 217 kts 251°
2026-05-04 09:22 40.59353 -73.35846 3937 ft 209 kts 251°
2026-05-04 09:22 40.58844 -73.37640 3833 ft 205 kts 250°
2026-05-04 09:22 40.58344 -73.39400 3732 ft 205 kts 250°
2026-05-04 09:22 40.57841 -73.41169 3629 ft 205 kts 250°
2026-05-04 09:23 40.57341 -73.42924 3526 ft 205 kts 250°
2026-05-04 09:23 40.56836 -73.44699 3422 ft 205 kts 250°
2026-05-04 09:23 40.56334 -73.46460 3324 ft 205 kts 250°
2026-05-04 09:23 40.55837 -73.48203 3240 ft 198 kts 250°
2026-05-04 09:25 40.53604 -73.59804 2998 ft 224 kts 291°
2026-05-04 09:25 40.54665 -73.61452 2985 ft 253 kts 321°
2026-05-04 09:26 40.56292 -73.62457 2993 ft 265 kts 335°
2026-05-04 09:26 40.58083 -73.63050 2985 ft 272 kts 355°
2026-05-04 09:26 40.59958 -73.62528 2978 ft 278 kts 24°
2026-05-04 09:26 40.61637 -73.61228 2993 ft 280 kts 31°
2026-05-04 09:27 40.63278 -73.59855 2994 ft 280 kts 31°
2026-05-04 09:27 40.64900 -73.58494 2995 ft 280 kts 31°
2026-05-04 09:27 40.66538 -73.57113 2987 ft 276 kts 31°
2026-05-04 09:27 40.68100 -73.55766 2982 ft 261 kts 31°
2026-05-04 09:28 40.69595 -73.54502 2981 ft 248 kts 29°
2026-05-04 09:28 40.71025 -73.53317 2984 ft 244 kts 29°
2026-05-04 09:28 40.72416 -73.52155 2985 ft 243 kts 29°
2026-05-04 09:28 40.73870 -73.50935 2985 ft 243 kts 29°
2026-05-04 09:29 40.75361 -73.49996 2978 ft 237 kts
2026-05-04 09:29 40.76953 -73.50146 2975 ft 224 kts 332°
2026-05-04 09:29 40.78169 -73.51317 2984 ft 215 kts 309°
2026-05-04 09:29 40.79171 -73.52766 2984 ft 212 kts 307°
2026-05-04 09:30 40.80130 -73.54179 2981 ft 202 kts 307°
2026-05-04 09:30 40.81044 -73.55525 2981 ft 193 kts 303°
2026-05-04 09:30 40.81609 -73.57089 2984 ft 187 kts 281°
2026-05-04 09:30 40.81688 -73.58777 2979 ft 184 kts 260°
2026-05-04 09:31 40.81259 -73.60371 2981 ft 184 kts 242°
2026-05-04 09:31 40.80560 -73.61758 2984 ft 185 kts 237°
2026-05-04 09:31 40.79833 -73.63167 2985 ft 185 kts 233°
2026-05-04 09:31 40.78890 -73.64239 2976 ft 175 kts 218°
2026-05-04 09:32 40.77866 -73.65041 2982 ft 171 kts 214°
2026-05-04 09:32 40.76911 -73.65784 2827 ft 173 kts 215°
2026-05-04 09:34 40.73380 -73.68551 2070 ft 150 kts 213°
2026-05-04 09:34 40.72495 -73.69245 1877 ft 145 kts 212°
2026-05-04 09:34 40.71639 -73.69916 1687 ft 143 kts 211°
2026-05-04 09:34 40.70790 -73.70580 1495 ft 144 kts 209°
2026-05-04 09:35 40.69945 -73.71242 1290 ft 135 kts 208°
2026-05-04 09:35 40.69166 -73.71851 1122 ft 129 kts 207°
2026-05-04 09:35 40.68397 -73.72453 947 ft 127 kts 206°
2026-05-04 09:35 40.67639 -73.73047 767 ft 128 kts 206°
2026-05-04 09:37 40.62112 -73.77370 801 ft 162 kts 202°
2026-05-04 09:37 40.61004 -73.77554 1682 ft 177 kts 173°
2026-05-04 09:38 40.59736 -73.77120 2304 ft 202 kts 168°
2026-05-04 09:38 40.58342 -73.76547 2850 ft 218 kts 167°
2026-05-04 09:38 40.56899 -73.75919 2987 ft 222 kts 167°
2026-05-04 09:38 40.55439 -73.75271 2997 ft 221 kts 167°
2026-05-04 09:39 40.54013 -73.74475 2999 ft 230 kts 156°
2026-05-04 09:39 40.52605 -73.73194 3001 ft 254 kts 144°
2026-05-04 09:39 40.51354 -73.71509 2997 ft 261 kts 133°
2026-05-04 09:39 40.50500 -73.69433 2989 ft 267 kts 108°
2026-05-04 09:40 40.50471 -73.66974 2985 ft 273 kts 78°
2026-05-04 09:40 40.51325 -73.64748 2985 ft 275 kts 48°
2026-05-04 09:40 40.52757 -73.63142 2990 ft 274 kts 29°
2026-05-04 09:40 40.54543 -73.62289 2996 ft 270 kts 12°
2026-05-04 09:41 40.56290 -73.61340 3000 ft 273 kts 26°
2026-05-04 09:42 40.67912 -73.52876 2990 ft 271 kts 26°
2026-05-04 09:43 40.69562 -73.51633 2989 ft 268 kts 26°
2026-05-04 09:43 40.71136 -73.50462 2983 ft 253 kts 20°
2026-05-04 09:43 40.72771 -73.50052 2971 ft 229 kts 347°
2026-05-04 09:43 40.74153 -73.50777 2969 ft 205 kts 314°
2026-05-04 09:44 40.75141 -73.52094 2986 ft 197 kts 307°
2026-05-04 09:44 40.76049 -73.53412 2989 ft 194 kts 307°
2026-05-04 09:44 40.76960 -73.54738 2990 ft 194 kts 307°
2026-05-04 09:46 40.78824 -73.64202 2987 ft 166 kts 226°
2026-05-04 09:46 40.77862 -73.65081 2989 ft 169 kts 214°
2026-05-04 09:46 40.76818 -73.65865 2805 ft 173 kts 214°
2026-05-04 09:47 40.75805 -73.66648 2586 ft 170 kts 215°
2026-05-04 09:47 40.74775 -73.67458 2366 ft 168 kts 214°
2026-05-04 09:49 40.68635 -73.72268 998 ft 130 kts 206°
2026-05-04 09:49 40.67869 -73.72868 822 ft 131 kts 206°
2026-05-04 09:49 40.67080 -73.73485 632 ft 130 kts 205°
2026-05-04 09:51 40.62991 -73.76753 18 ft 36 kts 238°
2026-05-04 09:51 40.62937 -73.76985 18 ft 21 kts 292°
2026-05-04 09:51 40.63020 -73.77039 18 ft 5 kts 286°
2026-05-04 09:51 40.63017 -73.77106 18 ft 10 kts 262°
2026-05-04 09:52 40.63038 -73.77221 18 ft 16 kts 301°
2026-05-04 09:52 40.63110 -73.77368 18 ft 21 kts 302°
2026-05-04 09:52 40.63151 -73.77454 18 ft 11 kts 301°
2026-05-04 09:52 40.63197 -73.77557 18 ft 9 kts 300°
2026-05-04 09:53 40.63224 -73.77619 18 ft 0 kts 300°
2026-05-04 09:53 40.63225 -73.77621 18 ft 1 kts 300°
2026-05-04 09:53 40.63240 -73.77656 18 ft 7 kts 299°
2026-05-04 09:54 40.63282 -73.77753 18 ft 16 kts 301°
2026-05-04 09:54 40.63371 -73.77822 18 ft 17 kts 31°
2026-05-04 09:54 40.63479 -73.77734 20 ft 18 kts 14°
2026-05-04 09:54 40.63559 -73.77838 20 ft 16 kts 302°
2026-05-04 09:55 40.63662 -73.77903 22 ft 17 kts 356°
2026-05-04 09:55 40.63781 -73.77914 22 ft 16 kts 353°
2026-05-04 09:55 40.63892 -73.77933 22 ft 12 kts 355°
2026-05-04 09:55 40.63912 -73.77980 22 ft 6 kts 256°
2026-05-04 09:56 40.63907 -73.78024 22 ft 6 kts 262°
2026-05-04 09:56 40.63904 -73.78044 22 ft 0 kts 262°